FW4143 Weather Reports


time (UTC)temp
C
wind
direction
speed
KPH
gust
KPH
rain 1hr
cm
rain 24hr
cm
rain mn
cm
humidity
%
barometer
mb
20260831101203 25 47 6.4 16.1 0.00 0.00 0.00 1 1016.2
20260831101103 25 47 6.4 16.1 0.00 0.00 0.00 1 1016.2
20260831101003 25 48 6.4 14.5 0.00 0.00 0.00 1 1016.2
20260831100903 25 48 6.4 14.5 0.00 0.00 0.00 1 1016.2
20260831100803 25 48 6.4 14.5 0.00 0.00 0.00 1 1016.2
20260831100704 25 47 6.4 16.1 0.00 0.00 0.00 1 1016.2
20260831100604 25 46 8.0 16.1 0.00 0.00 0.00 1 1016.2
20260831100504 25 45 8.0 16.1 0.00 0.00 0.00 1 1016.2
20260831100404 25 44 6.4 16.1 0.00 0.00 0.00 1 1016.2
20260831100303 25 43 6.4 16.1 0.00 0.00 0.00 1 1016.2
20260831100203 25 42 8.0 16.1 0.00 0.00 0.00 1 1016.2
20260831100103 25 41 6.4 16.1 0.00 0.00 0.00 1 1016.2
20260831100004 25 41 8.0 16.1 0.00 0.00 0.00 1 1016.3
20260831095925 25 41 6.4 16.1 0.00 0.00 0.00 1 1016.3
20260831095803 25 42 6.4 16.1 0.00 0.00 0.00 1 1016.3
20260831095703 25 43 4.8 16.1 0.00 0.00 0.00 1 1016.3
20260831095603 25 45 4.8 11.3 0.00 0.00 0.00 1 1016.3
20260831095503 25 46 4.8 11.3 0.00 0.00 0.00 1 1016.3
20260831095403 25 48 4.8 11.3 0.00 0.00 0.00 1 1016.3
20260831095306 25 49 4.8 11.3 0.00 0.00 0.00 1 1016.3
20260831095203 25 49 4.8 11.3 0.00 0.00 0.00 1 1016.3
20260831095103 25 49 4.8 11.3 0.00 0.00 0.00 1 1016.3
20260831095004 25 50 4.8 11.3 0.00 0.00 0.00 1 1016.3
20260831094903 25 50 4.8 9.7 0.00 0.00 0.00 1 1016.3
20260831094803 25 50 4.8 9.7 0.00 0.00 0.00 1 1016.2
20260831094703 25 50 4.8 9.7 0.00 0.00 0.00 1 1016.2
20260831094624 25 49 4.8 9.7 0.00 0.00 0.00 1 1016.2
20260831094503 25 49 4.8 9.7 0.00 0.00 0.00 1 1016.2
20260831094403 25 48 3.2 9.7 0.00 0.00 0.00 1 1016.2
20260831094303 25 49 3.2 9.7 0.00 0.00 0.00 1 1016.2
20260831094204 25 51 3.2 8.0 0.00 0.00 0.00 1 1016.2
20260831094103 25 51 3.2 9.7 0.00 0.00 0.00 1 1016.2
20260831094003 25 52 3.2 9.7 0.00 0.00 0.00 1 1016.2
20260831093903 25 52 3.2 9.7 0.00 0.00 0.00 1 1016.2
20260831093803 25 52 3.2 9.7 0.00 0.00 0.00 1 1016.2
20260831093725 25 52 3.2 9.7 0.00 0.00 0.00 1 1016.2
20260831093603 25 52 4.8 9.7 0.00 0.00 0.00 1 1016.2
20260831093504 25 51 4.8 9.7 0.00 0.00 0.00 1 1016.2
20260831093403 25 50 4.8 9.7 0.00 0.00 0.00 1 1016.2
20260831093303 25 49 4.8 9.7 0.00 0.00 0.00 1 1016.1
20260831093203 25 49 4.8 9.7 0.00 0.00 0.00 1 1016.2
20260831093103 25 48 4.8 9.7 0.00 0.00 0.00 1 1016.1
20260831093024 25 47 4.8 9.7 0.00 0.00 0.00 1 1016.1
20260831092903 25 45 4.8 9.7 0.00 0.00 0.00 1 1016.1
20260831092803 25 43 4.8 9.7 0.00 0.00 0.00 1 1016.1
20260831092724 25 43 4.8 9.7 0.00 0.00 0.00 1 1016.0
20260831092604 25 42 4.8 9.7 0.00 0.00 0.00 1 1016.0
20260831092503 25 41 4.8 9.7 0.00 0.00 0.00 1 1016.0
20260831092403 25 41 4.8 9.7 0.00 0.00 0.00 1 1016.0
20260831092306 25 41 4.8 9.7 0.00 0.00 0.00 1 1016.0
20260831092203 25 41 3.2 9.7 0.00 0.00 0.00 1 1016.0
20260831092124 25 41 3.2 9.7 0.00 0.00 0.00 1 1016.0
20260831092004 25 41 3.2 9.7 0.00 0.00 0.00 1 1015.9
20260831091924 25 41 3.2 9.7 0.00 0.00 0.00 1 1015.9
20260831091803 25 41 3.2 9.7 0.00 0.00 0.00 1 1015.9
20260831091703 25 42 3.2 9.7 0.00 0.00 0.00 1 1015.9
20260831091624 25 42 3.2 9.7 0.00 0.00 0.00 1 1015.9
20260831091503 25 43 3.2 9.7 0.00 0.00 0.00 1 1015.9
20260831091424 25 44 3.2 9.7 0.00 0.00 0.00 1 1015.9
20260831091324 25 45 3.2 9.7 0.00 0.00 0.00 1 1015.9
20260831091224 25 46 3.2 9.7 0.00 0.00 0.00 1 1015.9
20260831091103 25 45 3.2 9.7 0.00 0.00 0.00 1 1015.9
20260831091004 25 46 3.2 9.7 0.00 0.00 0.00 1 1015.9
20260831090903 25 46 3.2 9.7 0.00 0.00 0.00 1 1015.9
20260831090824 25 46 4.8 9.7 0.00 0.00 0.00 1 1015.9
20260831090704 25 49 4.8 9.7 0.00 0.00 0.00 1 1015.9
20260831090604 25 47 4.8 11.3 0.00 0.00 0.00 1 1015.8
20260831090503 25 48 4.8 11.3 0.00 0.00 0.00 1 1015.9
20260831090403 25 49 6.4 11.3 0.00 0.00 0.00 1 1015.9
20260831090303 25 49 4.8 11.3 0.00 0.00 0.00 1 1015.9
20260831090203 25 49 6.4 11.3 0.00 0.00 0.00 1 1015.9
20260831090124 25 49 6.4 11.3 0.00 0.00 0.00 1 1015.9
20260831090004 25 50 6.4 11.3 0.00 0.00 0.00 1 1015.9
20260831085903 25 50 6.4 11.3 0.00 0.00 0.00 1 1015.9
20260831085803 25 50 4.8 11.3 0.00 0.00 0.00 1 1015.9
20260831085703 25 48 4.8 11.3 0.00 0.00 0.00 1 1015.9
20260831085603 25 51 4.8 11.3 0.00 0.00 0.00 1 1015.9
20260831085503 25 51 4.8 11.3 0.00 0.00 0.00 1 1015.9
20260831085424 25 50 4.8 11.3 0.00 0.00 0.00 1 1015.9
20260831085306 25 49 4.8 11.3 0.00 0.00 0.00 1 1015.9
20260831085224 25 49 4.8 11.3 0.00 0.00 0.00 1 1016.0
20260831085125 25 48 4.8 11.3 0.00 0.00 0.00 1 1016.0
20260831085003 25 47 4.8 12.9 0.00 0.00 0.00 1 1016.0
20260831084903 25 47 4.8 12.9 0.00 0.00 0.00 1 1016.0
20260831084803 25 47 4.8 12.9 0.00 0.00 0.00 1 1016.1
20260831084703 25 47 4.8 12.9 0.00 0.00 0.00 1 1016.1
20260831084605 25 47 6.4 12.9 0.00 0.00 0.00 1 1016.1
20260831084503 25 47 6.4 12.9 0.00 0.00 0.00 1 1016.0
20260831084403 25 45 6.4 12.9 0.00 0.00 0.00 1 1016.0
20260831084303 25 44 6.4 12.9 0.00 0.00 0.00 1 1016.0
20260831084203 25 45 6.4 14.5 0.00 0.00 0.00 1 1016.0
20260831084103 25 45 6.4 14.5 0.00 0.00 0.00 1 1016.0
20260831084003 25 46 6.4 14.5 0.00 0.00 0.00 1 1016.0
20260831083903 25 46 6.4 14.5 0.00 0.00 0.00 1 1016.0
20260831083803 25 45 6.4 14.5 0.00 0.00 0.00 1 1016.0
20260831083704 25 46 6.4 14.5 0.00 0.00 0.00 1 1016.0
20260831083603 25 45 6.4 14.5 0.00 0.00 0.00 1 1015.9
20260831083524 25 45 6.4 14.5 0.00 0.00 0.00 1 1016.0
20260831083424 25 46 6.4 14.5 0.00 0.00 0.00 1 1015.9
20260831083303 26 48 6.4 14.5 0.00 0.00 0.00 1 1016.0
20260831083204 26 47 6.4 12.9 0.00 0.00 0.00 1 1016.0
20260831083104 26 47 6.4 12.9 0.00 0.00 0.00 1 1016.0
20260831083006 26 45 6.4 14.5 0.00 0.00 0.00 1 1015.9
20260831082903 26 45 6.4 14.5 0.00 0.00 0.00 1 1015.9
20260831082824 26 45 6.4 14.5 0.00 0.00 0.00 1 1015.9
20260831082704 26 44 6.4 14.5 0.00 0.00 0.00 1 1016.0
20260831082603 26 44 6.4 14.5 0.00 0.00 0.00 1 1016.0
20260831082503 26 43 6.4 14.5 0.00 0.00 0.00 1 1016.0
20260831082424 26 42 6.4 14.5 0.00 0.00 0.00 1 1016.0
20260831082306 26 44 6.4 14.5 0.00 0.00 0.00 1 1016.0
20260831082203 26 44 6.4 14.5 0.00 0.00 0.00 1 1016.0
20260831082103 26 41 6.4 14.5 0.00 0.00 0.00 1 1016.1
20260831082024 26 39 6.4 12.9 0.00 0.00 0.00 1 1016.1
20260831081903 26 38 6.4 12.9 0.00 0.00 0.00 1 1016.1
20260831081803 26 38 6.4 11.3 0.00 0.00 0.00 1 1016.1
20260831081703 26 34 6.4 11.3 0.00 0.00 0.00 1 1016.1
20260831081603 26 34 6.4 11.3 0.00 0.00 0.00 1 1016.1
20260831081503 26 33 4.8 11.3 0.00 0.00 0.00 1 1016.1
20260831081403 26 32 4.8 11.3 0.00 0.00 0.00 1 1016.1
20260831081303 26 28 4.8 11.3 0.00 0.00 0.00 1 1016.1
20260831081224 26 27 4.8 11.3 0.00 0.00 0.00 1 1016.1
20260831081103 26 27 4.8 11.3 0.00 0.00 0.00 1 1016.1
20260831081024 26 31 4.8 12.9 0.00 0.00 0.00 1 1016.1
20260831080904 26 31 4.8 12.9 0.00 0.00 0.00 1 1016.1
20260831080803 26 32 4.8 12.9 0.00 0.00 0.00 1 1016.1
20260831080703 26 35 4.8 12.9 0.00 0.00 0.00 1 1016.1
20260831080603 26 35 4.8 14.5 0.00 0.00 0.00 1 1016.0
20260831080503 26 30 4.8 14.5 0.00 0.00 0.00 1 1016.0
20260831080403 26 25 4.8 14.5 0.00 0.00 0.00 1 1016.0
20260831080303 26 24 4.8 14.5 0.00 0.00 0.00 1 1016.0
20260831080203 26 23 6.4 14.5 0.00 0.00 0.00 1 1016.0
20260831080004 26 24 4.8 14.5 0.00 0.00 0.00 1 1016.0
20260831075903 26 24 4.8 14.5 0.00 0.00 0.00 1 1016.0
20260831075824 26 23 4.8 14.5 0.00 0.00 0.00 1 1016.0
20260831075724 26 23 4.8 14.5 0.00 0.00 0.00 1 1016.0
20260831075624 26 19 4.8 14.5 0.00 0.00 0.00 1 1016.0
20260831075503 26 17 4.8 14.5 0.00 0.00 0.00 1 1016.0
20260831075404 26 23 6.4 14.5 0.00 0.00 0.00 1 1016.0
20260831075306 26 20 4.8 14.5 0.00 0.00 0.00 1 1016.1
20260831075203 26 20 4.8 12.9 0.00 0.00 0.00 1 1016.0
20260831075124 26 22 4.8 12.9 0.00 0.00 0.00 1 1016.0
20260831075003 26 22 4.8 16.1 0.00 0.00 0.00 1 1016.0
20260831074903 26 23 4.8 16.1 0.00 0.00 0.00 1 1016.0
20260831074825 26 22 4.8 16.1 0.00 0.00 0.00 1 1016.0
20260831074724 26 20 4.8 16.1 0.00 0.00 0.00 1 1016.1
20260831074603 26 26 4.8 16.1 0.00 0.00 0.00 1 1016.1
20260831074524 26 29 4.8 16.1 0.00 0.00 0.00 1 1016.0
20260831074403 26 30 4.8 16.1 0.00 0.00 0.00 1 1016.1
20260831074324 26 32 4.8 16.1 0.00 0.00 0.00 1 1016.1
20260831074224 26 35 4.8 16.1 0.00 0.00 0.00 1 1016.1
20260831074103 26 35 4.8 12.9 0.00 0.00 0.00 1 1016.1
20260831074004 26 35 4.8 12.9 0.00 0.00 0.00 1 1016.1
20260831073903 26 34 4.8 12.9 0.00 0.00 0.00 1 1016.1
20260831073803 26 35 4.8 9.7 0.00 0.00 0.00 1 1016.1
20260831073703 26 36 4.8 9.7 0.00 0.00 0.00 1 1016.1
20260831073603 26 37 4.8 9.7 0.00 0.00 0.00 1 1016.1
20260831073504 26 40 3.2 9.7 0.00 0.00 0.00 1 1016.1
20260831073403 26 41 3.2 9.7 0.00 0.00 0.00 1 1016.1
20260831073303 26 42 3.2 9.7 0.00 0.00 0.00 1 1016.1
20260831073224 26 42 3.2 9.7 0.00 0.00 0.00 1 1016.1
20260831073103 26 42 3.2 9.7 0.00 0.00 0.00 1 1016.1
20260831073004 26 43 3.2 9.7 0.00 0.00 0.00 1 1016.1
20260831072903 26 43 3.2 8.0 0.00 0.00 0.00 1 1016.1
20260831072803 26 42 4.8 8.0 0.00 0.00 0.00 1 1016.1
20260831072703 26 41 4.8 8.0 0.00 0.00 0.00 1 1016.1
20260831072603 26 40 4.8 8.0 0.00 0.00 0.00 1 1016.1
20260831072524 26 39 4.8 8.0 0.00 0.00 0.00 1 1016.1
20260831072403 26 38 4.8 9.7 0.00 0.00 0.00 1 1016.1
20260831072306 26 37 4.8 9.7 0.00 0.00 0.00 1 1016.1
20260831072203 27 37 4.8 9.7 0.00 0.00 0.00 1 1016.1
20260831072103 27 37 4.8 9.7 0.00 0.00 0.00 1 1016.1
20260831072024 27 36 3.2 9.7 0.00 0.00 0.00 1 1016.1
20260831071904 27 36 3.2 9.7 0.00 0.00 0.00 1 1016.1
20260831071803 27 37 3.2 9.7 0.00 0.00 0.00 1 1016.1
20260831071703 27 38 3.2 9.7 0.00 0.00 0.00 1 1016.0
20260831071603 27 39 4.8 11.3 0.00 0.00 0.00 1 1016.0
20260831071503 27 40 4.8 11.3 0.00 0.00 0.00 1 1016.0
20260831071424 27 40 4.8 11.3 0.00 0.00 0.00 1 1016.0
20260831071324 27 39 4.8 11.3 0.00 0.00 0.00 1 1016.1
20260831071203 27 38 4.8 11.3 0.00 0.00 0.00 1 1016.0
20260831071103 27 37 4.8 11.3 0.00 0.00 0.00 1 1016.0
20260831071003 27 37 4.8 11.3 0.00 0.00 0.00 1 1016.0
20260831070903 27 35 4.8 11.3 0.00 0.00 0.00 1 1016.0
20260831070803 27 34 4.8 11.3 0.00 0.00 0.00 1 1016.0
20260831070703 27 32 4.8 11.3 0.00 0.00 0.00 1 1016.0
20260831070605 27 31 3.2 11.3 0.00 0.00 0.00 1 1016.0
20260831070503 27 30 3.2 11.3 0.00 0.00 0.00 1 1016.0
20260831070424 27 30 3.2 11.3 0.00 0.00 0.00 1 1016.1
20260831070324 27 29 3.2 11.3 0.00 0.00 0.00 1 1016.0
20260831070203 27 28 3.2 11.3 0.00 0.00 0.00 1 1016.0
20260831070124 27 27 3.2 8.0 0.00 0.00 0.00 1 1016.1
20260831070003 27 27 3.2 9.7 0.00 0.00 0.00 1 1016.1
20260831065903 27 28 3.2 9.7 0.00 0.00 0.00 1 1016.1
20260831065803 27 28 3.2 9.7 0.00 0.00 0.00 1 1016.1
20260831065703 27 28 3.2 9.7 0.00 0.00 0.00 1 1016.1
20260831065624 27 29 3.2 9.7 0.00 0.00 0.00 1 1016.1
20260831065503 27 29 3.2 9.7 0.00 0.00 0.00 1 1016.1
20260831065404 27 29 3.2 9.7 0.00 0.00 0.00 1 1016.1
20260831065324 27 29 3.2 9.7 0.00 0.00 0.00 1 1016.1
20260831065204 27 30 3.2 9.7 0.00 0.00 0.00 1 1016.2
20260831065124 27 30 3.2 9.7 0.00 0.00 0.00 1 1016.2
20260831065003 27 31 1.6 9.7 0.00 0.00 0.00 1 1016.2
20260831064924 27 31 1.6 8.0 0.00 0.00 0.00 1 1016.1
20260831064803 27 31 1.6 6.4 0.00 0.00 0.00 1 1016.2
20260831064703 27 31 1.6 6.4 0.00 0.00 0.00 1 1016.1
20260831064603 27 30 1.6 8.0 0.00 0.00 0.00 1 1016.2
20260831064503 27 30 1.6 8.0 0.00 0.00 0.00 1 1016.2
20260831064403 27 30 1.6 8.0 0.00 0.00 0.00 1 1016.2
20260831064303 27 30 1.6 8.0 0.00 0.00 0.00 1 1016.1
20260831064203 27 30 1.6 8.0 0.00 0.00 0.00 1 1016.2
20260831064103 27 30 3.2 8.0 0.00 0.00 0.00 1 1016.2
20260831064025 27 30 3.2 8.0 0.00 0.00 0.00 1 1016.2
20260831063903 27 29 3.2 8.0 0.00 0.00 0.00 1 1016.2
20260831063824 27 28 3.2 8.0 0.00 0.00 0.00 1 1016.3
20260831063703 27 26 3.2 8.0 0.00 0.00 0.00 1 1016.3
20260831063603 27 23 3.2 11.3 0.00 0.00 0.00 1 1016.3
20260831063525 27 23 3.2 11.3 0.00 0.00 0.00 1 1016.2
20260831063403 27 22 3.2 11.3 0.00 0.00 0.00 1 1016.2
20260831063303 27 22 3.2 11.3 0.00 0.00 0.00 1 1016.3
20260831063203 27 21 3.2 11.3 0.00 0.00 0.00 1 1016.3
20260831063104 27 19 3.2 11.3 0.00 0.00 0.00 1 1016.3
20260831063024 27 18 3.2 11.3 0.00 0.00 0.00 1 1016.2
20260831062903 28 17 4.8 11.3 0.00 0.00 0.00 1 1016.2
20260831062803 28 19 4.8 11.3 0.00 0.00 0.00 1 1016.3
20260831062703 28 23 4.8 11.3 0.00 0.00 0.00 1 1016.2
20260831062603 28 24 4.8 9.7 0.00 0.00 0.00 1 1016.2
20260831062503 28 24 4.8 9.7 0.00 0.00 0.00 1 1016.2
20260831062403 28 24 4.8 9.7 0.00 0.00 0.00 1 1016.2
20260831062305 28 24 4.8 9.7 0.00 0.00 0.00 1 1016.2
20260831062203 28 25 4.8 12.9 0.00 0.00 0.00 1 1016.2
20260831062103 28 28 4.8 12.9 0.00 0.00 0.00 1 1016.2
20260831062003 28 30 4.8 12.9 0.00 0.00 0.00 1 1016.2
20260831061903 28 32 4.8 12.9 0.00 0.00 0.00 1 1016.2
20260831061824 28 32 4.8 12.9 0.00 0.00 0.00 1 1016.2
20260831061703 28 31 4.8 12.9 0.00 0.00 0.00 1 1016.2
20260831061603 28 33 4.8 12.9 0.00 0.00 0.00 1 1016.2
20260831061504 28 32 4.8 12.9 0.00 0.00 0.00 1 1016.2
20260831061403 28 33 4.8 12.9 0.00 0.00 0.00 1 1016.2
20260831061303 28 33 4.8 12.9 0.00 0.00 0.00 1 1016.2
20260831061204 28 32 4.8 12.9 0.00 0.00 0.00 1 1016.2
20260831061103 28 31 4.8 12.9 0.00 0.00 0.00 1 1016.2
20260831061003 28 33 4.8 12.9 0.00 0.00 0.00 1 1016.1
20260831060924 28 34 4.8 12.9 0.00 0.00 0.00 1 1016.2
20260831060803 28 35 4.8 12.9 0.00 0.00 0.00 1 1016.2
20260831060703 28 32 4.8 12.9 0.00 0.00 0.00 1 1016.1
20260831060603 28 30 4.8 12.9 0.00 0.00 0.00 1 1016.1
20260831060503 28 31 4.8 12.9 0.00 0.00 0.00 1 1016.1
20260831060403 28 31 4.8 12.9 0.00 0.00 0.00 1 1016.1
20260831060303 28 32 4.8 12.9 0.00 0.00 0.00 1 1016.0
20260831060204 28 30 4.8 12.9 0.00 0.00 0.00 1 1016.0
20260831060103 28 26 4.8 12.9 0.00 0.00 0.00 1 1016.1
20260831060003 28 20 4.8 12.9 0.00 0.00 0.00 1 1016.1
20260831055903 28 13 4.8 12.9 0.00 0.00 0.00 1 1016.0
20260831055824 28 7 4.8 12.9 0.00 0.00 0.00 1 1016.0
20260831055703 28 4 4.8 12.9 0.00 0.00 0.00 1 1016.1
20260831055603 28 2 4.8 12.9 0.00 0.00 0.00 1 1016.1
20260831055503 28 357 4.8 11.3 0.00 0.00 0.00 1 1016.0
20260831055405 28 355 4.8 11.3 0.00 0.00 0.00 1 1016.1
20260831055306 28 354 4.8 11.3 0.00 0.00 0.00 1 1016.1
20260831055203 28 355 4.8 11.3 0.00 0.00 0.00 1 1016.1
20260831055103 28 359 4.8 11.3 0.00 0.00 0.00 1 1016.0
20260831055004 28 2 4.8 11.3 0.00 0.00 0.00 1 1016.0
20260831054903 28 7 4.8 11.3 0.00 0.00 0.00 1 1016.0
20260831054824 28 12 3.2 11.3 0.00 0.00 0.00 1 1016.0
20260831054703 28 16 4.8 11.3 0.00 0.00 0.00 1 1016.0
20260831054603 28 20 4.8 11.3 0.00 0.00 0.00 1 1016.0
20260831054503 28 24 4.8 9.7 0.00 0.00 0.00 1 1016.0
20260831054403 28 26 4.8 9.7 0.00 0.00 0.00 1 1016.0
20260831054324 28 29 4.8 9.7 0.00 0.00 0.00 1 1016.0
20260831054225 28 32 4.8 9.7 0.00 0.00 0.00 1 1016.0
20260831054103 28 37 4.8 9.7 0.00 0.00 0.00 1 1016.0
20260831054003 28 42 4.8 9.7 0.00 0.00 0.00 1 1016.0
20260831053903 28 47 4.8 9.7 0.00 0.00 0.00 1 1016.0
20260831053803 28 48 4.8 9.7 0.00 0.00 0.00 1 1016.0
20260831053724 28 45 4.8 11.3 0.00 0.00 0.00 1 1016.0
20260831053603 28 47 4.8 11.3 0.00 0.00 0.00 1 1016.0
20260831053503 28 45 4.8 11.3 0.00 0.00 0.00 1 1016.0
20260831053403 28 41 4.8 11.3 0.00 0.00 0.00 1 1016.0
20260831053324 28 34 4.8 11.3 0.00 0.00 0.00 1 1016.0
20260831053203 28 21 4.8 11.3 0.00 0.00 0.00 2 1016.0
20260831053103 28 18 4.8 11.3 0.00 0.00 0.00 3 1015.9
20260831053003 28 16 4.8 11.3 0.00 0.00 0.00 3 1015.9
20260831052903 28 16 4.8 12.9 0.00 0.00 0.00 4 1015.9
20260831052803 28 16 4.8 14.5 0.00 0.00 0.00 5 1015.9
20260831052703 28 19 4.8 14.5 0.00 0.00 0.00 6 1015.9
20260831052624 28 19 4.8 14.5 0.00 0.00 0.00 7 1015.9
20260831052504 28 22 4.8 14.5 0.00 0.00 0.00 7 1015.9
20260831052403 28 28 4.8 14.5 0.00 0.00 0.00 8 1015.9
20260831052306 28 32 4.8 14.5 0.00 0.00 0.00 9 1015.9
20260831052224 28 33 4.8 14.5 0.00 0.00 0.00 9 1015.8
20260831052103 29 36 4.8 14.5 0.00 0.00 0.00 11 1015.8
20260831052004 29 35 4.8 14.5 0.00 0.00 0.00 12 1015.8
20260831051903 29 32 4.8 14.5 0.00 0.00 0.00 13 1015.8
20260831051804 29 30 4.8 14.5 0.00 0.00 0.00 13 1015.9
20260831051703 29 27 4.8 14.5 0.00 0.00 0.00 14 1015.8
20260831051603 29 21 4.8 14.5 0.00 0.00 0.00 15 1015.8
20260831051503 29 16 6.4 14.5 0.00 0.00 0.00 16 1015.9
20260831051424 29 16 6.4 14.5 0.00 0.00 0.00 17 1015.8
20260831051304 29 10 6.4 14.5 0.00 0.00 0.00 17 1015.8
20260831051203 29 5 6.4 14.5 0.00 0.00 0.00 18 1015.8
20260831051103 29 2 6.4 14.5 0.00 0.00 0.00 18 1015.8
20260831051003 29 355 6.4 14.5 0.00 0.00 0.00 19 1015.8
20260831050924 29 352 6.4 14.5 0.00 0.00 0.00 19 1015.8
20260831050803 29 349 6.4 14.5 0.00 0.00 0.00 20 1015.8
20260831050703 29 354 6.4 14.5 0.00 0.00 0.00 20 1015.8
20260831050603 29 355 6.4 14.5 0.00 0.00 0.00 21 1015.8
20260831050503 29 355 6.4 14.5 0.00 0.00 0.00 22 1015.8
20260831050403 29 350 6.4 14.5 0.00 0.00 0.00 22 1015.8
20260831050303 29 350 6.4 14.5 0.00 0.00 0.00 23 1015.8
20260831050203 29 349 6.4 14.5 0.00 0.00 0.00 23 1015.8
20260831050103 29 347 6.4 16.1 0.00 0.00 0.00 24 1015.7
20260831050003 29 352 6.4 16.1 0.00 0.00 0.00 24 1015.7
20260831045903 29 360 6.4 16.1 0.00 0.00 0.00 25 1015.7
20260831045824 29 4 6.4 16.1 0.00 0.00 0.00 25 1015.7
20260831045704 29 4 6.4 16.1 0.00 0.00 0.00 26 1015.6
20260831045603 29 9 6.4 16.1 0.00 0.00 0.00 26 1015.6
20260831045503 29 14 6.4 16.1 0.00 0.00 0.00 26 1015.6
20260831045403 30 13 6.4 16.1 0.00 0.00 0.00 27 1015.6
20260831045306 30 21 6.4 16.1 0.00 0.00 0.00 27 1015.6
20260831045203 30 23 6.4 16.1 0.00 0.00 0.00 27 1015.5
20260831045103 30 30 6.4 16.1 0.00 0.00 0.00 28 1015.6
20260831045003 30 31 6.4 16.1 0.00 0.00 0.00 28 1015.5
20260831044903 30 30 6.4 12.9 0.00 0.00 0.00 28 1015.5
20260831044803 30 27 6.4 14.5 0.00 0.00 0.00 28 1015.5
20260831044724 30 24 6.4 14.5 0.00 0.00 0.00 29 1015.5
20260831044603 30 23 6.4 14.5 0.00 0.00 0.00 29 1015.5
20260831044503 30 17 6.4 14.5 0.00 0.00 0.00 29 1015.6
20260831044403 30 17 6.4 14.5 0.00 0.00 0.00 29 1015.6
20260831044303 30 11 6.4 14.5 0.00 0.00 0.00 30 1015.6
20260831044203 30 11 6.4 14.5 0.00 0.00 0.00 30 1015.5
20260831044124 30 6 6.4 14.5 0.00 0.00 0.00 30 1015.6
20260831044024 30 358 6.4 14.5 0.00 0.00 0.00 30 1015.6
20260831043903 30 348 6.4 14.5 0.00 0.00 0.00 30 1015.6
20260831043803 30 338 4.8 11.3 0.00 0.00 0.00 30 1015.6
20260831043703 30 334 4.8 11.3 0.00 0.00 0.00 30 1015.6
20260831043624 30 330 4.8 11.3 0.00 0.00 0.00 31 1015.6
20260831043503 30 329 4.8 11.3 0.00 0.00 0.00 31 1015.6
20260831043403 30 331 4.8 12.9 0.00 0.00 0.00 31 1015.6
20260831043303 30 335 4.8 12.9 0.00 0.00 0.00 31 1015.6
20260831043203 30 339 4.8 12.9 0.00 0.00 0.00 31 1015.6
20260831043103 30 347 4.8 12.9 0.00 0.00 0.00 31 1015.6
20260831043024 30 351 4.8 12.9 0.00 0.00 0.00 32 1015.5
20260831042903 30 4 4.8 12.9 0.00 0.00 0.00 32 1015.5
20260831042803 30 14 4.8 12.9 0.00 0.00 0.00 32 1015.4
20260831042703 30 17 4.8 12.9 0.00 0.00 0.00 32 1015.4
20260831042603 30 23 4.8 12.9 0.00 0.00 0.00 32 1015.4
20260831042503 30 25 4.8 12.9 0.00 0.00 0.00 32 1015.4
20260831042403 30 33 4.8 12.9 0.00 0.00 0.00 33 1015.4
20260831042306 30 31 6.4 12.9 0.00 0.00 0.00 33 1015.5
20260831042224 30 29 4.8 12.9 0.00 0.00 0.00 33 1015.5
20260831042103 30 30 6.4 12.9 0.00 0.00 0.00 33 1015.5
20260831042004 30 29 4.8 12.9 0.00 0.00 0.00 33 1015.5
20260831041903 30 23 4.8 12.9 0.00 0.00 0.00 33 1015.5
20260831041825 30 18 4.8 12.9 0.00 0.00 0.00 33 1015.5
20260831041724 30 15 4.8 12.9 0.00 0.00 0.00 33 1015.5
20260831041624 30 12 6.4 12.9 0.00 0.00 0.00 34 1015.5
20260831041503 30 4 6.4 16.1 0.00 0.00 0.00 34 1015.5
20260831041403 30 1 6.4 16.1 0.00 0.00 0.00 34 1015.6
20260831041303 30 1 6.4 16.1 0.00 0.00 0.00 34 1015.7
20260831041203 30 358 6.4 16.1 0.00 0.00 0.00 34 1015.6
20260831041103 30 347 6.4 16.1 0.00 0.00 0.00 34 1015.6
20260831041003 30 349 6.4 16.1 0.00 0.00 0.00 34 1015.6
20260831040903 30 354 6.4 16.1 0.00 0.00 0.00 34 1015.6
20260831040803 30 353 6.4 16.1 0.00 0.00 0.00 34 1015.6
20260831040703 30 351 6.4 16.1 0.00 0.00 0.00 34 1015.6
20260831040603 30 349 6.4 16.1 0.00 0.00 0.00 34 1015.6
20260831040503 30 353 6.4 16.1 0.00 0.00 0.00 35 1015.6
20260831040403 30 354 6.4 16.1 0.00 0.00 0.00 35 1015.6
20260831040303 30 349 6.4 16.1 0.00 0.00 0.00 35 1015.6
20260831040203 30 355 6.4 16.1 0.00 0.00 0.00 35 1015.6
20260831040103 30 4 4.8 12.9 0.00 0.00 0.00 35 1015.6
20260831040003 30 6 4.8 12.9 0.00 0.00 0.00 35 1015.5
20260831035903 30 7 4.8 12.9 0.00 0.00 0.00 35 1015.6
20260831035803 30 7 4.8 11.3 0.00 0.00 0.00 35 1015.5
20260831035703 30 10 4.8 11.3 0.00 0.00 0.00 35 1015.6
20260831035603 30 3 4.8 11.3 0.00 0.00 0.00 35 1015.6
20260831035503 30 359 4.8 11.3 0.00 0.00 0.00 36 1015.5
20260831035403 30 356 4.8 11.3 0.00 0.00 0.00 36 1015.5
20260831035306 30 357 4.8 11.3 0.00 0.00 0.00 36 1015.5
20260831035203 30 351 4.8 11.3 0.00 0.00 0.00 36 1015.5
20260831035103 30 344 4.8 9.7 0.00 0.00 0.00 36 1015.4
20260831035003 30 337 4.8 9.7 0.00 0.00 0.00 36 1015.4
20260831034903 30 330 3.2 9.7 0.00 0.00 0.00 36 1015.4
20260831034803 30 327 3.2 9.7 0.00 0.00 0.00 36 1015.4
20260831034724 30 326 4.8 9.7 0.00 0.00 0.00 36 1015.4
20260831034603 30 329 4.8 9.7 0.00 0.00 0.00 36 1015.4
20260831034503 30 333 4.8 9.7 0.00 0.00 0.00 36 1015.3
20260831034403 30 333 4.8 12.9 0.00 0.00 0.00 36 1015.4
20260831034303 30 330 4.8 12.9 0.00 0.00 0.00 37 1015.4
20260831034203 30 327 4.8 12.9 0.00 0.00 0.00 37 1015.3
20260831034103 30 325 4.8 12.9 0.00 0.00 0.00 37 1015.4
20260831034024 30 324 4.8 12.9 0.00 0.00 0.00 37 1015.4
20260831033903 30 324 4.8 12.9 0.00 0.00 0.00 37 1015.3
20260831033803 30 324 4.8 12.9 0.00 0.00 0.00 37 1015.3
20260831033703 30 325 4.8 12.9 0.00 0.00 0.00 37 1015.3
20260831033603 30 322 4.8 12.9 0.00 0.00 0.00 37 1015.3
20260831033503 30 316 4.8 12.9 0.00 0.00 0.00 37 1015.3
20260831033403 30 308 3.2 11.3 0.00 0.00 0.00 37 1015.2
20260831033303 30 304 3.2 11.3 0.00 0.00 0.00 37 1015.2
20260831033203 30 302 3.2 11.3 0.00 0.00 0.00 37 1015.3
20260831033103 30 298 3.2 11.3 0.00 0.00 0.00 37 1015.3
20260831033003 31 295 3.2 11.3 0.00 0.00 0.00 38 1015.2
20260831032903 31 293 3.2 11.3 0.00 0.00 0.00 38 1015.2
20260831032803 31 288 3.2 11.3 0.00 0.00 0.00 38 1015.2
20260831032703 31 280 3.2 8.0 0.00 0.00 0.00 38 1015.2
20260831032624 31 279 3.2 8.0 0.00 0.00 0.00 38 1015.2
20260831032524 31 278 3.2 8.0 0.00 0.00 0.00 38 1015.2
20260831032403 31 278 3.2 8.0 0.00 0.00 0.00 38 1015.2
20260831032324 31 282 3.2 9.7 0.00 0.00 0.00 38 1015.2
20260831032203 31 286 4.8 9.7 0.00 0.00 0.00 38 1015.2
20260831032103 31 290 4.8 9.7 0.00 0.00 0.00 38 1015.2
20260831032003 31 293 3.2 9.7 0.00 0.00 0.00 38 1015.2
20260831031903 31 296 4.8 9.7 0.00 0.00 0.00 38 1015.2
20260831031803 31 301 4.8 9.7 0.00 0.00 0.00 38 1015.2
20260831031724 31 304 4.8 9.7 0.00 0.00 0.00 38 1015.2
20260831031603 31 309 4.8 9.7 0.00 0.00 0.00 39 1015.1
20260831031503 31 313 4.8 9.7 0.00 0.00 0.00 39 1015.1
20260831031424 31 314 4.8 9.7 0.00 0.00 0.00 39 1015.1
20260831031303 31 315 4.8 9.7 0.00 0.00 0.00 39 1015.1
20260831031203 31 315 4.8 9.7 0.00 0.00 0.00 39 1015.0
20260831031104 31 313 4.8 9.7 0.00 0.00 0.00 39 1015.0
20260831031003 31 314 4.8 9.7 0.00 0.00 0.00 39 1015.0
20260831030903 31 317 4.8 9.7 0.00 0.00 0.00 39 1015.0
20260831030803 31 321 4.8 9.7 0.00 0.00 0.00 39 1015.0
20260831030703 31 320 4.8 9.7 0.00 0.00 0.00 39 1015.0
20260831030603 31 320 4.8 9.7 0.00 0.00 0.00 39 1014.9
20260831030524 31 320 4.8 9.7 0.00 0.00 0.00 39 1014.9
20260831030403 31 321 4.8 9.7 0.00 0.00 0.00 39 1015.0
20260831030303 31 322 4.8 11.3 0.00 0.00 0.00 39 1015.0
20260831030203 31 321 4.8 11.3 0.00 0.00 0.00 39 1014.9
20260831030003 31 325 4.8 17.7 0.00 0.00 0.00 40 1014.9
20260831025903 31 323 4.8 17.7 0.00 0.00 0.00 40 1014.8
20260831025803 31 320 4.8 17.7 0.00 0.00 0.00 40 1014.8
20260831025703 31 321 6.4 17.7 0.00 0.00 0.00 40 1014.8
20260831025603 31 322 6.4 17.7 0.00 0.00 0.00 40 1014.8
20260831025503 31 322 6.4 17.7 0.00 0.00 0.00 40 1014.7
20260831025405 31 320 6.4 17.7 0.00 0.00 0.00 40 1014.8
20260831025306 31 321 6.4 17.7 0.00 0.00 0.00 40 1014.8
20260831025224 31 323 6.4 17.7 0.00 0.00 0.00 40 1014.8
20260831025103 31 318 6.4 17.7 0.00 0.00 0.00 40 1014.8
20260831025003 31 316 6.4 17.7 0.00 0.00 0.00 40 1014.8
20260831024903 31 315 6.4 17.7 0.00 0.00 0.00 40 1014.8
20260831024803 31 314 6.4 17.7 0.00 0.00 0.00 40 1014.7
20260831024724 31 313 6.4 17.7 0.00 0.00 0.00 40 1014.7
20260831024603 31 314 6.4 17.7 0.00 0.00 0.00 40 1014.7
20260831024503 31 314 6.4 17.7 0.00 0.00 0.00 41 1014.6
20260831024424 31 316 6.4 17.7 0.00 0.00 0.00 41 1014.6
20260831024303 31 312 6.4 17.7 0.00 0.00 0.00 41 1014.7
20260831024204 31 308 4.8 16.1 0.00 0.00 0.00 41 1014.6
20260831024103 31 311 4.8 16.1 0.00 0.00 0.00 41 1014.6
20260831024003 31 313 4.8 16.1 0.00 0.00 0.00 41 1014.6
20260831023903 31 314 4.8 16.1 0.00 0.00 0.00 41 1014.6
20260831023803 31 314 6.4 16.1 0.00 0.00 0.00 41 1014.6
20260831023724 31 315 6.4 16.1 0.00 0.00 0.00 41 1014.5
20260831023603 31 311 6.4 16.1 0.00 0.00 0.00 41 1014.6
20260831023503 31 314 6.4 16.1 0.00 0.00 0.00 41 1014.6
20260831023403 31 314 6.4 16.1 0.00 0.00 0.00 42 1014.5
20260831023303 31 317 6.4 16.1 0.00 0.00 0.00 42 1014.6
20260831023203 31 318 8.0 16.1 0.00 0.00 0.00 42 1014.6
20260831023103 31 319 8.0 16.1 0.00 0.00 0.00 42 1014.5
20260831023024 31 319 8.0 16.1 0.00 0.00 0.00 42 1014.5
20260831022903 31 318 6.4 16.1 0.00 0.00 0.00 42 1014.5
20260831022803 31 318 6.4 16.1 0.00 0.00 0.00 42 1014.5
20260831022703 31 319 6.4 16.1 0.00 0.00 0.00 42 1014.4
20260831022603 31 320 6.4 16.1 0.00 0.00 0.00 42 1014.4
20260831022524 31 319 6.4 16.1 0.00 0.00 0.00 42 1014.4
20260831022403 31 316 6.4 17.7 0.00 0.00 0.00 42 1014.4
20260831022306 31 315 6.4 17.7 0.00 0.00 0.00 42 1014.3
20260831022203 31 313 6.4 17.7 0.00 0.00 0.00 43 1014.4
20260831022103 31 309 6.4 17.7 0.00 0.00 0.00 43 1014.3
20260831022003 31 309 6.4 17.7 0.00 0.00 0.00 43 1014.3
20260831021903 31 312 6.4 17.7 0.00 0.00 0.00 43 1014.2
20260831021824 31 316 6.4 17.7 0.00 0.00 0.00 43 1014.2
20260831021703 31 315 6.4 17.7 0.00 0.00 0.00 43 1014.2
20260831021603 31 315 6.4 17.7 0.00 0.00 0.00 43 1014.2
20260831021503 31 317 6.4 17.7 0.00 0.00 0.00 43 1014.2
20260831021403 31 319 6.4 19.3 0.00 0.00 0.00 44 1014.2
20260831021303 31 318 6.4 19.3 0.00 0.00 0.00 44 1014.2
20260831021203 31 323 6.4 19.3 0.00 0.00 0.00 44 1014.2
20260831021124 31 325 6.4 19.3 0.00 0.00 0.00 44 1014.1
20260831021003 32 327 6.4 19.3 0.00 0.00 0.00 44 1014.1
20260831020903 32 324 6.4 19.3 0.00 0.00 0.00 44 1014.1
20260831020803 32 318 8.0 19.3 0.00 0.00 0.00 45 1014.1
20260831020703 32 319 8.0 19.3 0.00 0.00 0.00 45 1014.1
20260831020624 32 320 8.0 19.3 0.00 0.00 0.00 45 1014.1
20260831020503 32 319 8.0 19.3 0.00 0.00 0.00 45 1014.0
20260831020403 32 318 8.0 17.7 0.00 0.00 0.00 46 1014.1
20260831020303 32 317 8.0 17.7 0.00 0.00 0.00 46 1014.1
20260831020203 32 313 6.4 16.1 0.00 0.00 0.00 46 1014.0
20260831020103 32 310 6.4 16.1 0.00 0.00 0.00 46 1014.0
20260831020024 32 310 6.4 16.1 0.00 0.00 0.00 46 1014.0
20260831015903 32 312 6.4 16.1 0.00 0.00 0.00 46 1014.0
20260831015803 32 312 6.4 16.1 0.00 0.00 0.00 47 1014.0
20260831015703 32 314 4.8 16.1 0.00 0.00 0.00 47 1013.9
20260831015624 32 311 4.8 16.1 0.00 0.00 0.00 47 1014.0
20260831015503 32 310 4.8 16.1 0.00 0.00 0.00 47 1014.0
20260831015403 32 310 4.8 16.1 0.00 0.00 0.00 47 1013.9
20260831015305 32 311 4.8 16.1 0.00 0.00 0.00 47 1013.9
20260831015203 32 309 6.4 16.1 0.00 0.00 0.00 47 1013.9
20260831015124 32 309 6.4 14.5 0.00 0.00 0.00 47 1013.9
20260831015003 32 307 6.4 29.0 0.00 0.00 0.00 47 1013.9
20260831014903 32 307 6.4 29.0 0.00 0.00 0.00 47 1013.8
20260831014804 32 304 6.4 29.0 0.00 0.00 0.00 47 1013.8
20260831014703 32 302 6.4 29.0 0.00 0.00 0.00 47 1013.7
20260831014603 32 300 6.4 29.0 0.00 0.00 0.00 47 1013.7
20260831014503 32 300 6.4 29.0 0.00 0.00 0.00 47 1013.7
20260831014404 32 298 6.4 29.0 0.00 0.00 0.00 47 1013.6
20260831014303 32 296 6.4 29.0 0.00 0.00 0.00 47 1013.7
20260831014203 32 294 6.4 29.0 0.00 0.00 0.00 47 1013.6
20260831014103 32 291 6.4 29.0 0.00 0.00 0.00 47 1013.6
20260831014003 32 286 4.8 17.7 0.00 0.00 0.00 46 1013.6
20260831013903 32 281 4.8 17.7 0.00 0.00 0.00 46 1013.5
20260831013803 32 278 4.8 17.7 0.00 0.00 0.00 46 1013.5
20260831013703 32 273 3.2 14.5 0.00 0.00 0.00 46 1013.6
20260831013603 32 270 3.2 14.5 0.00 0.00 0.00 45 1013.5
20260831013505 32 264 3.2 14.5 0.00 0.00 0.00 45 1013.5
20260831013403 32 257 3.2 14.5 0.00 0.00 0.00 45 1013.5
20260831013303 32 255 3.2 14.5 0.00 0.00 0.00 45 1013.4
20260831013203 32 253 3.2 8.0 0.00 0.00 0.00 44 1013.4
20260831013103 32 254 3.2 8.0 0.00 0.00 0.00 44 1013.3
20260831013003 32 254 3.2 8.0 0.00 0.00 0.00 44 1013.3
20260831012903 32 254 3.2 8.0 0.00 0.00 0.00 44 1013.3
20260831012803 32 254 3.2 8.0 0.00 0.00 0.00 44 1013.3
20260831012703 32 255 1.6 8.0 0.00 0.00 0.00 44 1013.3
20260831012603 32 255 1.6 8.0 0.00 0.00 0.00 44 1013.3
20260831012503 32 255 1.6 8.0 0.00 0.00 0.00 44 1013.3
20260831012424 32 255 1.6 8.0 0.00 0.00 0.00 43 1013.3
20260831012324 33 255 1.6 6.4 0.00 0.00 0.00 43 1013.3
20260831012203 33 255 1.6 4.8 0.00 0.00 0.00 43 1013.3
20260831012103 33 255 1.6 4.8 0.00 0.00 0.00 43 1013.3
20260831012003 33 255 1.6 4.8 0.00 0.00 0.00 43 1013.2
20260831011903 33 255 1.6 4.8 0.00 0.00 0.00 43 1013.3
20260831011803 33 255 1.6 4.8 0.00 0.00 0.00 43 1013.3
20260831011703 33 255 1.6 4.8 0.00 0.00 0.00 43 1013.2
20260831011603 33 255 1.6 4.8 0.00 0.00 0.00 42 1013.2
20260831011503 33 255 1.6 4.8 0.00 0.00 0.00 42 1013.2
20260831011424 33 255 1.6 4.8 0.00 0.00 0.00 42 1013.2
20260831011324 33 255 1.6 4.8 0.00 0.00 0.00 42 1013.2
20260831011203 33 255 1.6 4.8 0.00 0.00 0.00 42 1013.2
20260831011103 33 255 1.6 4.8 0.00 0.00 0.00 42 1013.2
20260831011003 33 255 1.6 4.8 0.00 0.00 0.00 42 1013.2
20260831010924 33 255 1.6 4.8 0.00 0.00 0.00 42 1013.2
20260831010803 33 255 1.6 4.8 0.00 0.00 0.00 42 1013.2
20260831010724 33 255 1.6 4.8 0.00 0.00 0.00 42 1013.2
20260831010624 33 255 1.6 4.8 0.00 0.00 0.00 42 1013.2
20260831010503 33 255 1.6 4.8 0.00 0.00 0.00 42 1013.2
20260831010403 33 255 1.6 4.8 0.00 0.00 0.00 42 1013.2
20260831010303 33 255 1.6 6.4 0.00 0.00 0.00 41 1013.2
20260831010203 33 255 1.6 6.4 0.00 0.00 0.00 41 1013.2
20260831010003 33 255 1.6 6.4 0.00 0.00 0.00 41 1013.2
20260831005903 33 255 1.6 6.4 0.00 0.00 0.00 41 1013.2
20260831005803 33 255 1.6 6.4 0.00 0.00 0.00 41 1013.2
20260831005703 33 255 1.6 6.4 0.00 0.00 0.00 41 1013.1
20260831005603 33 255 1.6 6.4 0.00 0.00 0.00 41 1013.1
20260831005503 33 255 1.6 6.4 0.00 0.00 0.00 41 1013.2
20260831005403 34 255 1.6 6.4 0.00 0.00 0.00 41 1013.2
20260831005306 34 255 1.6 6.4 0.00 0.00 0.00 41 1013.1
20260831005203 34 255 1.6 6.4 0.00 0.00 0.00 41 1013.1
20260831005103 34 255 1.6 6.4 0.00 0.00 0.00 41 1013.1
20260831005003 34 255 1.6 6.4 0.00 0.00 0.00 41 1013.1
20260831004903 34 255 1.6 6.4 0.00 0.00 0.00 40 1013.2
20260831004803 34 255 1.6 6.4 0.00 0.00 0.00 40 1013.2
20260831004703 34 255 1.6 6.4 0.00 0.00 0.00 40 1013.1
20260831004624 34 255 1.6 4.8 0.00 0.00 0.00 40 1013.2
20260831004524 34 255 1.6 6.4 0.00 0.00 0.00 41 1013.1
20260831004424 34 255 1.6 6.4 0.00 0.00 0.00 41 1013.2
20260831004303 34 255 1.6 6.4 0.00 0.00 0.00 40 1013.1
20260831004224 34 255 1.6 6.4 0.00 0.00 0.00 40 1013.1
20260831004103 34 255 1.6 6.4 0.00 0.00 0.00 40 1013.1
20260831004003 34 255 1.6 6.4 0.00 0.00 0.00 40 1013.1
20260831003924 34 255 1.6 6.4 0.00 0.00 0.00 40 1013.1
20260831003803 34 255 1.6 6.4 0.00 0.00 0.00 40 1013.1
20260831003703 34 255 1.6 6.4 0.00 0.00 0.00 40 1013.1
20260831003624 35 255 1.6 6.4 0.00 0.00 0.00 40 1013.1
20260831003503 35 255 1.6 4.8 0.00 0.00 0.00 40 1013.1
20260831003403 35 255 1.6 4.8 0.00 0.00 0.00 40 1013.1
20260831003303 35 255 1.6 4.8 0.00 0.00 0.00 40 1013.1
20260831003203 35 255 1.6 4.8 0.00 0.00 0.00 40 1013.1
20260831003103 35 255 1.6 4.8 0.00 0.00 0.00 40 1013.0
20260831003003 35 255 1.6 4.8 0.00 0.00 0.00 40 1013.0
20260831002903 35 255 1.6 4.8 0.00 0.00 0.00 40 1013.1
20260831002803 35 255 1.6 4.8 0.00 0.00 0.00 40 1013.0
20260831002703 35 255 3.2 4.8 0.00 0.00 0.00 40 1013.0
20260831002603 35 255 3.2 4.8 0.00 0.00 0.00 40 1013.0
20260831002503 35 255 3.2 4.8 0.00 0.00 0.00 40 1013.0
20260831002403 35 255 3.2 6.4 0.00 0.00 0.00 40 1012.9
20260831002306 35 255 3.2 6.4 0.00 0.00 0.00 40 1013.0
20260831002203 35 255 3.2 8.0 0.00 0.00 0.00 40 1013.0
20260831002124 35 255 3.2 8.0 0.00 0.00 0.00 39 1012.9
20260831002003 35 254 3.2 8.0 0.00 0.00 0.00 39 1013.0
20260831001924 35 254 3.2 8.0 0.00 0.00 0.00 39 1013.0
20260831001803 35 254 3.2 8.0 0.00 0.00 0.00 40 1012.9
20260831001704 35 254 3.2 8.0 0.00 0.00 0.00 40 1012.9
20260831001603 35 254 3.2 8.0 0.00 0.00 0.00 40 1012.9
20260831001503 35 254 3.2 8.0 0.00 0.00 0.00 40 1012.9
20260831001403 35 254 3.2 8.0 0.00 0.00 0.00 40 1012.9
20260831001303 35 253 3.2 8.0 0.00 0.00 0.00 40 1012.9
20260831001203 35 253 3.2 6.4 0.00 0.00 0.00 39 1012.9
20260831001103 35 254 3.2 9.7 0.00 0.00 0.00 40 1012.9
20260831001003 35 255 3.2 9.7 0.00 0.00 0.00 40 1012.9
20260831000903 35 257 3.2 9.7 0.00 0.00 0.00 40 1012.9
20260831000803 35 258 3.2 9.7 0.00 0.00 0.00 40 1012.9
20260831000703 35 260 1.6 9.7 0.00 0.00 0.00 40 1012.9
20260831000603 35 262 3.2 9.7 0.00 0.00 0.00 40 1012.9
20260831000524 35 262 3.2 9.7 0.00 0.00 0.00 40 1012.9
20260831000403 35 263 3.2 9.7 0.00 0.00 0.00 40 1012.9
20260831000303 35 265 3.2 9.7 0.00 0.00 0.00 40 1013.0
20260831000204 35 267 3.2 9.7 0.00 0.00 0.00 40 1012.9
20260831000103 35 268 3.2 8.0 0.00 0.00 0.00 40 1012.9
20260831000003 35 272 3.2 8.0 0.00 0.00 0.00 39 1013.0
20260830235903 35 273 3.2 8.0 0.00 0.00 0.00 39 1013.0
20260830235803 35 275 3.2 8.0 0.00 0.00 0.00 39 1013.0
20260830235703 35 279 3.2 8.0 0.00 0.00 0.00 39 1013.0
20260830235603 35 284 3.2 8.0 0.00 0.00 0.00 39 1013.0
20260830235506 35 286 3.2 8.0 0.00 0.00 0.00 39 1013.0
20260830235403 35 290 3.2 8.0 0.00 0.00 0.00 39 1013.0
20260830235305 35 290 3.2 8.0 0.00 0.00 0.00 39 1013.0
20260830235203 35 290 3.2 8.0 0.00 0.00 0.00 39 1013.0
20260830235103 35 293 3.2 8.0 0.00 0.00 0.00 39 1013.0
20260830235024 35 291 3.2 8.0 0.00 0.00 0.00 39 1013.0
20260830234903 35 289 3.2 8.0 0.00 0.00 0.00 39 1013.0
20260830234803 35 285 3.2 8.0 0.00 0.00 0.00 39 1013.0
20260830234724 35 283 3.2 8.0 0.00 0.00 0.00 39 1013.1
20260830234604 35 277 3.2 8.0 0.00 0.00 0.00 38 1013.0
20260830234503 35 273 3.2 8.0 0.00 0.00 0.00 38 1013.1
20260830234403 35 266 1.6 8.0 0.00 0.00 0.00 38 1013.1
20260830234303 35 263 1.6 6.4 0.00 0.00 0.00 39 1013.0
20260830234224 35 262 1.6 6.4 0.00 0.00 0.00 39 1013.0
20260830234103 35 262 3.2 8.0 0.00 0.00 0.00 38 1013.0
20260830234003 35 260 3.2 8.0 0.00 0.00 0.00 38 1013.0
20260830233903 35 260 3.2 8.0 0.00 0.00 0.00 38 1013.1
20260830233803 35 260 3.2 8.0 0.00 0.00 0.00 38 1013.0
20260830233703 35 260 3.2 9.7 0.00 0.00 0.00 38 1013.1
20260830233603 36 263 3.2 9.7 0.00 0.00 0.00 38 1013.1
20260830233503 36 269 3.2 9.7 0.00 0.00 0.00 38 1013.1
20260830233403 36 271 3.2 9.7 0.00 0.00 0.00 38 1013.1
20260830233324 35 270 3.2 9.7 0.00 0.00 0.00 38 1013.1
20260830233203 36 271 3.2 9.7 0.00 0.00 0.00 38 1013.1
20260830233103 36 275 3.2 9.7 0.00 0.00 0.00 38 1013.1
20260830233003 36 279 3.2 9.7 0.00 0.00 0.00 38 1013.1
20260830232903 36 287 3.2 9.7 0.00 0.00 0.00 38 1013.1
20260830232803 35 289 3.2 9.7 0.00 0.00 0.00 38 1013.0
20260830232703 35 294 4.8 11.3 0.00 0.00 0.00 38 1013.0
20260830232603 35 293 4.8 14.5 0.00 0.00 0.00 38 1013.1
20260830232524 35 295 4.8 14.5 0.00 0.00 0.00 38 1013.1
20260830232403 35 294 4.8 14.5 0.00 0.00 0.00 38 1013.1
20260830232305 35 299 4.8 14.5 0.00 0.00 0.00 38 1013.1
20260830232203 35 302 4.8 14.5 0.00 0.00 0.00 38 1013.1
20260830232103 36 301 4.8 14.5 0.00 0.00 0.00 38 1013.0
20260830232024 36 300 6.4 14.5 0.00 0.00 0.00 38 1013.0
20260830231903 36 295 6.4 14.5 0.00 0.00 0.00 37 1013.1
20260830231803 36 293 6.4 14.5 0.00 0.00 0.00 37 1013.0
20260830231703 36 288 6.4 14.5 0.00 0.00 0.00 37 1013.0
20260830231603 36 288 6.4 12.9 0.00 0.00 0.00 37 1013.0
20260830231503 36 283 6.4 12.9 0.00 0.00 0.00 37 1013.0
20260830231403 36 286 6.4 12.9 0.00 0.00 0.00 37 1013.0
20260830231303 36 287 6.4 16.1 0.00 0.00 0.00 37 1013.0
20260830231203 36 284 6.4 16.1 0.00 0.00 0.00 37 1013.1
20260830231103 36 284 6.4 16.1 0.00 0.00 0.00 37 1013.0
20260830231003 36 286 6.4 16.1 0.00 0.00 0.00 37 1013.0
20260830230903 36 285 6.4 16.1 0.00 0.00 0.00 37 1013.0
20260830230824 36 285 6.4 16.1 0.00 0.00 0.00 37 1013.0
20260830230724 36 286 6.4 16.1 0.00 0.00 0.00 37 1013.0
20260830230624 36 285 6.4 16.1 0.00 0.00 0.00 37 1013.0
20260830230503 36 286 6.4 16.1 0.00 0.00 0.00 37 1013.1
20260830230403 36 279 6.4 16.1 0.00 0.00 0.00 37 1013.1
20260830230303 36 276 4.8 14.5 0.00 0.00 0.00 37 1013.0
20260830230204 36 273 6.4 12.9 0.00 0.00 0.00 37 1013.0
20260830230103 36 273 4.8 12.9 0.00 0.00 0.00 37 1013.0
20260830230004 36 273 4.8 12.9 0.00 0.00 0.00 37 1013.0
20260830225924 36 273 4.8 11.3 0.00 0.00 0.00 37 1013.0
20260830225803 36 274 4.8 11.3 0.00 0.00 0.00 37 1013.0
20260830225704 36 274 4.8 11.3 0.00 0.00 0.00 37 1013.0
20260830225624 36 275 3.2 11.3 0.00 0.00 0.00 37 1013.0
20260830225505 36 274 3.2 9.7 0.00 0.00 0.00 37 1013.0
20260830225403 36 278 3.2 9.7 0.00 0.00 0.00 37 1013.0
20260830225305 36 280 4.8 9.7 0.00 0.00 0.00 37 1013.0
20260830225203 36 284 3.2 9.7 0.00 0.00 0.00 37 1013.1
20260830225124 36 283 3.2 9.7 0.00 0.00 0.00 37 1013.1
20260830225003 36 281 3.2 9.7 0.00 0.00 0.00 37 1013.1
20260830224903 36 281 4.8 11.3 0.00 0.00 0.00 37 1013.0
20260830224824 36 280 3.2 11.3 0.00 0.00 0.00 37 1013.0
20260830224724 36 280 3.2 11.3 0.00 0.00 0.00 37 1013.0
20260830224624 36 285 4.8 11.3 0.00 0.00 0.00 37 1013.1
20260830224503 36 291 4.8 14.5 0.00 0.00 0.00 37 1013.1
20260830224403 36 300 4.8 14.5 0.00 0.00 0.00 37 1013.1
20260830224303 36 305 4.8 14.5 0.00 0.00 0.00 37 1013.0
20260830224203 36 312 6.4 14.5 0.00 0.00 0.00 37 1013.0
20260830224103 36 315 6.4 14.5 0.00 0.00 0.00 36 1013.1
20260830224003 36 321 6.4 14.5 0.00 0.00 0.00 37 1013.1
20260830223903 36 321 6.4 14.5 0.00 0.00 0.00 37 1013.1
20260830223824 36 319 6.4 14.5 0.00 0.00 0.00 36 1013.0
20260830223703 36 316 6.4 14.5 0.00 0.00 0.00 36 1013.1
20260830223603 36 310 6.4 14.5 0.00 0.00 0.00 36 1013.1
20260830223524 36 307 4.8 12.9 0.00 0.00 0.00 36 1013.1
20260830223424 36 298 4.8 12.9 0.00 0.00 0.00 36 1013.1
20260830223303 36 275 4.8 12.9 0.00 0.00 0.00 37 1013.1
20260830223203 36 266 4.8 12.9 0.00 0.00 0.00 37 1013.1
20260830223103 36 265 4.8 12.9 0.00 0.00 0.00 37 1013.2
20260830223003 36 268 4.8 12.9 0.00 0.00 0.00 36 1013.2
20260830222903 36 271 4.8 12.9 0.00 0.00 0.00 36 1013.2
20260830222803 36 270 4.8 12.9 0.00 0.00 0.00 37 1013.1
20260830222703 36 271 4.8 12.9 0.00 0.00 0.00 37 1013.1
20260830222603 36 270 4.8 12.9 0.00 0.00 0.00 37 1013.2
20260830222503 36 273 4.8 12.9 0.00 0.00 0.00 37 1013.1
20260830222403 36 275 4.8 12.9 0.00 0.00 0.00 36 1013.1
20260830222306 36 283 4.8 12.9 0.00 0.00 0.00 37 1013.2
20260830222224 36 286 4.8 12.9 0.00 0.00 0.00 36 1013.2
20260830222103 36 282 4.8 12.9 0.00 0.00 0.00 37 1013.2
20260830222003 36 276 4.8 12.9 0.00 0.00 0.00 38 1013.2
20260830221903 36 274 4.8 12.9 0.00 0.00 0.00 37 1013.3
20260830221803 36 278 4.8 12.9 0.00 0.00 0.00 37 1013.2
20260830221703 36 280 4.8 12.9 0.00 0.00 0.00 37 1013.2
20260830221603 36 285 3.2 12.9 0.00 0.00 0.00 37 1013.2
20260830221503 36 289 3.2 12.9 0.00 0.00 0.00 37 1013.2
20260830221403 36 292 3.2 12.9 0.00 0.00 0.00 38 1013.2
20260830221303 36 296 3.2 12.9 0.00 0.00 0.00 38 1013.2
20260830221224 36 297 3.2 12.9 0.00 0.00 0.00 37 1013.2
20260830221103 36 307 3.2 11.3 0.00 0.00 0.00 37 1013.2
20260830221003 36 315 3.2 11.3 0.00 0.00 0.00 37 1013.3
20260830220903 36 320 3.2 12.9 0.00 0.00 0.00 38 1013.3
20260830220803 36 320 3.2 12.9 0.00 0.00 0.00 38 1013.3
20260830220703 36 320 3.2 12.9 0.00 0.00 0.00 38 1013.2
20260830220604 36 319 3.2 12.9 0.00 0.00 0.00 37 1013.3
20260830220503 36 318 3.2 12.9 0.00 0.00 0.00 38 1013.3
20260830220424 36 320 4.8 12.9 0.00 0.00 0.00 38 1013.2
20260830220324 36 324 4.8 12.9 0.00 0.00 0.00 38 1013.2
20260830220203 36 322 4.8 12.9 0.00 0.00 0.00 38 1013.2
20260830220024 36 314 4.8 12.9 0.00 0.00 0.00 38 1013.3
20260830215903 36 316 4.8 12.9 0.00 0.00 0.00 38 1013.3
20260830215803 36 327 6.4 16.1 0.00 0.00 0.00 38 1013.3
20260830215703 36 328 6.4 16.1 0.00 0.00 0.00 38 1013.3
20260830215603 36 326 6.4 16.1 0.00 0.00 0.00 37 1013.3
20260830215503 36 325 4.8 16.1 0.00 0.00 0.00 38 1013.4
20260830215403 36 319 4.8 16.1 0.00 0.00 0.00 37 1013.3
20260830215305 36 312 4.8 16.1 0.00 0.00 0.00 37 1013.4
20260830215203 36 319 4.8 16.1 0.00 0.00 0.00 37 1013.4
20260830215124 36 322 6.4 16.1 0.00 0.00 0.00 37 1013.4
20260830215003 36 333 4.8 16.1 0.00 0.00 0.00 37 1013.4
20260830214903 36 328 4.8 16.1 0.00 0.00 0.00 37 1013.4
20260830214824 36 316 4.8 16.1 0.00 0.00 0.00 38 1013.4
20260830214703 36 297 4.8 16.1 0.00 0.00 0.00 37 1013.4
20260830214603 36 299 4.8 16.1 0.00 0.00 0.00 37 1013.4
20260830214503 36 306 4.8 16.1 0.00 0.00 0.00 37 1013.4
20260830214403 36 312 4.8 16.1 0.00 0.00 0.00 37 1013.5
20260830214303 36 324 4.8 16.1 0.00 0.00 0.00 37 1013.5
20260830214224 36 332 4.8 16.1 0.00 0.00 0.00 36 1013.5
20260830214103 36 330 4.8 16.1 0.00 0.00 0.00 36 1013.4
20260830214003 36 357 4.8 9.7 0.00 0.00 0.00 36 1013.5
20260830213903 36 12 4.8 9.7 0.00 0.00 0.00 36 1013.4
20260830213803 36 28 4.8 9.7 0.00 0.00 0.00 36 1013.4
20260830213703 36 34 3.2 14.5 0.00 0.00 0.00 37 1013.5
20260830213624 36 36 3.2 14.5 0.00 0.00 0.00 37 1013.4
20260830213503 36 38 3.2 14.5 0.00 0.00 0.00 37 1013.5
20260830213403 36 38 3.2 14.5 0.00 0.00 0.00 37 1013.5
20260830213324 36 39 3.2 14.5 0.00 0.00 0.00 37 1013.5
20260830213203 36 38 3.2 14.5 0.00 0.00 0.00 38 1013.5
20260830213103 36 27 3.2 14.5 0.00 0.00 0.00 38 1013.6
20260830213003 36 23 3.2 14.5 0.00 0.00 0.00 38 1013.6
20260830212903 36 6 3.2 14.5 0.00 0.00 0.00 38 1013.6
20260830212803 36 339 3.2 14.5 0.00 0.00 0.00 38 1013.7
20260830212724 36 330 3.2 14.5 0.00 0.00 0.00 38 1013.7
20260830212603 35 302 3.2 14.5 0.00 0.00 0.00 38 1013.8
20260830212505 35 286 4.8 14.5 0.00 0.00 0.00 38 1013.8
20260830212403 35 274 4.8 14.5 0.00 0.00 0.00 38 1013.8
20260830212324 35 268 4.8 14.5 0.00 0.00 0.00 38 1013.8
20260830212203 35 269 4.8 14.5 0.00 0.00 0.00 38 1013.8
20260830212103 35 267 4.8 14.5 0.00 0.00 0.00 39 1013.9
20260830212003 35 270 4.8 14.5 0.00 0.00 0.00 38 1013.8
20260830211903 35 285 4.8 14.5 0.00 0.00 0.00 38 1013.8
20260830211803 35 288 6.4 14.5 0.00 0.00 0.00 39 1013.9
20260830211703 35 287 6.4 14.5 0.00 0.00 0.00 38 1013.9
20260830211603 35 296 6.4 14.5 0.00 0.00 0.00 38 1013.9
20260830211503 35 308 6.4 14.5 0.00 0.00 0.00 38 1013.9
20260830211403 35 322 6.4 14.5 0.00 0.00 0.00 38 1014.0
20260830211303 36 339 6.4 14.5 0.00 0.00 0.00 37 1013.9
20260830211224 36 352 6.4 14.5 0.00 0.00 0.00 37 1014.0
20260830211103 36 11 6.4 14.5 0.00 0.00 0.00 37 1014.0
20260830211003 36 11 6.4 14.5 0.00 0.00 0.00 37 1014.0
20260830210903 36 26 4.8 14.5 0.00 0.00 0.00 37 1014.0
20260830210803 36 41 4.8 14.5 0.00 0.00 0.00 37 1014.0
20260830210703 36 45 4.8 14.5 0.00 0.00 0.00 37 1014.0
20260830210603 36 45 4.8 12.9 0.00 0.00 0.00 37 1014.1
20260830210503 36 44 4.8 12.9 0.00 0.00 0.00 38 1014.1
20260830210424 36 44 4.8 12.9 0.00 0.00 0.00 38 1014.1
20260830210303 36 47 4.8 12.9 0.00 0.00 0.00 37 1014.1
20260830210203 35 44 3.2 12.9 0.00 0.00 0.00 37 1014.1
20260830210103 35 44 4.8 12.9 0.00 0.00 0.00 38 1014.1
20260830210003 35 43 4.8 12.9 0.00 0.00 0.00 38 1014.1
20260830205903 35 39 4.8 12.9 0.00 0.00 0.00 38 1014.2
20260830205803 35 33 4.8 12.9 0.00 0.00 0.00 37 1014.2
20260830205703 35 18 4.8 12.9 0.00 0.00 0.00 38 1014.2
20260830205603 35 9 4.8 11.3 0.00 0.00 0.00 37 1014.2
20260830205524 35 2 4.8 11.3 0.00 0.00 0.00 38 1014.2
20260830205424 35 345 4.8 11.3 0.00 0.00 0.00 38 1014.2
20260830205324 35 326 6.4 12.9 0.00 0.00 0.00 38 1014.3
20260830205203 35 311 6.4 16.1 0.00 0.00 0.00 38 1014.3
20260830205103 35 310 6.4 16.1 0.00 0.00 0.00 38 1014.3
20260830205003 35 311 6.4 16.1 0.00 0.00 0.00 38 1014.3
20260830204903 35 316 6.4 16.1 0.00 0.00 0.00 38 1014.3
20260830204803 35 323 8.0 16.1 0.00 0.00 0.00 38 1014.3
20260830204703 35 328 8.0 16.1 0.00 0.00 0.00 38 1014.4
20260830204603 35 338 8.0 16.1 0.00 0.00 0.00 38 1014.4
20260830204503 36 345 8.0 16.1 0.00 0.00 0.00 38 1014.4
20260830204403 36 351 8.0 16.1 0.00 0.00 0.00 38 1014.4
20260830204303 36 354 6.4 16.1 0.00 0.00 0.00 37 1014.4
20260830204203 36 4 6.4 16.1 0.00 0.00 0.00 37 1014.4
20260830204103 36 5 6.4 16.1 0.00 0.00 0.00 37 1014.4
20260830204003 36 354 6.4 16.1 0.00 0.00 0.00 36 1014.4
20260830203903 36 338 6.4 16.1 0.00 0.00 0.00 37 1014.4
20260830203803 36 331 6.4 16.1 0.00 0.00 0.00 37 1014.4
20260830203703 36 322 4.8 16.1 0.00 0.00 0.00 37 1014.4
20260830203603 36 310 4.8 16.1 0.00 0.00 0.00 37 1014.4
20260830203503 36 308 4.8 16.1 0.00 0.00 0.00 37 1014.4
20260830203403 36 309 4.8 16.1 0.00 0.00 0.00 37 1014.5
20260830203303 36 310 6.4 16.1 0.00 0.00 0.00 37 1014.5
20260830203203 36 306 6.4 14.5 0.00 0.00 0.00 37 1014.5
20260830203103 36 304 4.8 16.1 0.00 0.00 0.00 37 1014.5
20260830203024 35 305 4.8 16.1 0.00 0.00 0.00 37 1014.5
20260830202903 35 301 4.8 16.1 0.00 0.00 0.00 38 1014.5
20260830202803 35 302 4.8 16.1 0.00 0.00 0.00 38 1014.5
20260830202703 35 306 4.8 16.1 0.00 0.00 0.00 38 1014.6
20260830202624 35 306 6.4 16.1 0.00 0.00 0.00 38 1014.5
20260830202503 35 309 6.4 16.1 0.00 0.00 0.00 38 1014.6
20260830202403 35 313 6.4 16.1 0.00 0.00 0.00 38 1014.6
20260830202305 35 313 6.4 16.1 0.00 0.00 0.00 38 1014.7
20260830202203 35 310 6.4 16.1 0.00 0.00 0.00 38 1014.7
20260830202103 35 311 6.4 16.1 0.00 0.00 0.00 38 1014.7
20260830202003 35 312 4.8 16.1 0.00 0.00 0.00 38 1014.7
20260830201924 35 314 4.8 16.1 0.00 0.00 0.00 37 1014.8
20260830201803 36 318 4.8 16.1 0.00 0.00 0.00 38 1014.8
20260830201703 36 329 4.8 16.1 0.00 0.00 0.00 37 1014.8
20260830201603 36 330 4.8 16.1 0.00 0.00 0.00 37 1014.7
20260830201503 36 314 4.8 16.1 0.00 0.00 0.00 37 1014.8
20260830201403 36 299 4.8 16.1 0.00 0.00 0.00 37 1014.8
20260830201303 36 298 4.8 16.1 0.00 0.00 0.00 37 1014.8
20260830201203 36 303 4.8 16.1 0.00 0.00 0.00 36 1014.8
20260830201103 36 313 6.4 17.7 0.00 0.00 0.00 36 1014.8
20260830201003 36 325 6.4 17.7 0.00 0.00 0.00 36 1014.8
20260830200903 36 331 8.0 17.7 0.00 0.00 0.00 37 1014.9
20260830200803 36 334 6.4 17.7 0.00 0.00 0.00 37 1014.9
20260830200703 36 328 6.4 17.7 0.00 0.00 0.00 37 1014.9
20260830200624 36 327 6.4 17.7 0.00 0.00 0.00 36 1014.9
20260830200503 36 326 6.4 17.7 0.00 0.00 0.00 36 1014.9
20260830200403 36 323 6.4 17.7 0.00 0.00 0.00 36 1015.0
20260830200303 36 316 6.4 17.7 0.00 0.00 0.00 36 1015.0
20260830200203 36 308 6.4 17.7 0.00 0.00 0.00 36 1015.0
20260830200103 36 294 6.4 16.1 0.00 0.00 0.00 36 1015.0
20260830200024 36 286 6.4 16.1 0.00 0.00 0.00 36 1015.1
20260830195924 35 279 6.4 16.1 0.00 0.00 0.00 37 1015.0
20260830195803 35 276 6.4 16.1 0.00 0.00 0.00 37 1015.0
20260830195703 35 278 6.4 16.1 0.00 0.00 0.00 37 1015.0
20260830195603 35 282 8.0 16.1 0.00 0.00 0.00 37 1015.1
20260830195503 35 291 8.0 16.1 0.00 0.00 0.00 37 1015.1
20260830195403 35 295 8.0 16.1 0.00 0.00 0.00 37 1015.1
20260830195305 35 305 8.0 16.1 0.00 0.00 0.00 37 1015.1
20260830195224 35 316 8.0 20.9 0.00 0.00 0.00 37 1015.1
20260830195103 35 343 8.0 20.9 0.00 0.00 0.00 37 1015.1
20260830195003 35 5 8.0 20.9 0.00 0.00 0.00 37 1015.1
20260830194903 35 27 9.7 20.9 0.00 0.00 0.00 38 1015.1
20260830194824 35 34 9.7 20.9 0.00 0.00 0.00 37 1015.2
20260830194703 35 42 9.7 20.9 0.00 0.00 0.00 38 1015.2
20260830194603 35 47 9.7 20.9 0.00 0.00 0.00 37 1015.2
20260830194503 35 49 9.7 20.9 0.00 0.00 0.00 37 1015.2
20260830194403 35 45 9.7 20.9 0.00 0.00 0.00 37 1015.2
20260830194303 35 45 9.7 20.9 0.00 0.00 0.00 38 1015.3
20260830194203 35 35 9.7 20.9 0.00 0.00 0.00 38 1015.2
20260830194103 35 35 9.7 20.9 0.00 0.00 0.00 38 1015.2
20260830194003 35 29 9.7 20.9 0.00 0.00 0.00 37 1015.2
20260830193903 35 22 9.7 20.9 0.00 0.00 0.00 37 1015.3
20260830193803 35 13 8.0 20.9 0.00 0.00 0.00 37 1015.3
20260830193703 35 9 8.0 20.9 0.00 0.00 0.00 37 1015.4
20260830193603 35 6 8.0 20.9 0.00 0.00 0.00 37 1015.4
20260830193525 35 3 8.0 20.9 0.00 0.00 0.00 37 1015.4
20260830193403 35 9 9.7 22.5 0.00 0.00 0.00 37 1015.4
20260830193303 35 16 9.7 22.5 0.00 0.00 0.00 37 1015.5
20260830193203 35 29 9.7 22.5 0.00 0.00 0.00 37 1015.5
20260830193103 35 30 11.3 22.5 0.00 0.00 0.00 36 1015.4
20260830193003 35 32 11.3 24.1 0.00 0.00 0.00 36 1015.5
20260830192924 35 33 11.3 24.1 0.00 0.00 0.00 36 1015.5
20260830192803 35 32 11.3 24.1 0.00 0.00 0.00 37 1015.6
20260830192703 35 35 11.3 24.1 0.00 0.00 0.00 37 1015.6
20260830192624 35 36 11.3 24.1 0.00 0.00 0.00 37 1015.6
20260830192503 35 41 11.3 24.1 0.00 0.00 0.00 37 1015.6
20260830192403 35 43 11.3 24.1 0.00 0.00 0.00 37 1015.6
20260830192305 35 44 11.3 24.1 0.00 0.00 0.00 37 1015.5
20260830192203 35 38 11.3 24.1 0.00 0.00 0.00 37 1015.6
20260830192103 35 38 9.7 24.1 0.00 0.00 0.00 36 1015.7
20260830192024 35 40 9.7 24.1 0.00 0.00 0.00 37 1015.7
20260830191903 35 41 8.0 19.3 0.00 0.00 0.00 37 1015.7
20260830191803 35 43 8.0 19.3 0.00 0.00 0.00 36 1015.7
20260830191703 35 38 8.0 19.3 0.00 0.00 0.00 36 1015.7
20260830191603 35 33 8.0 19.3 0.00 0.00 0.00 36 1015.8
20260830191503 35 35 6.4 19.3 0.00 0.00 0.00 36 1015.8
20260830191403 35 36 6.4 17.7 0.00 0.00 0.00 36 1015.9
20260830191324 35 35 6.4 17.7 0.00 0.00 0.00 36 1015.8
20260830191203 35 43 6.4 17.7 0.00 0.00 0.00 36 1015.9
20260830191103 35 47 6.4 17.7 0.00 0.00 0.00 35 1015.9
20260830191003 35 52 6.4 14.5 0.00 0.00 0.00 36 1015.9
20260830190903 35 46 6.4 14.5 0.00 0.00 0.00 36 1015.9
20260830190803 35 44 6.4 14.5 0.00 0.00 0.00 36 1015.9
20260830190703 35 50 6.4 12.9 0.00 0.00 0.00 35 1016.0
20260830190603 35 50 6.4 12.9 0.00 0.00 0.00 35 1016.0
20260830190503 35 43 6.4 16.1 0.00 0.00 0.00 35 1016.0
20260830190403 35 36 4.8 16.1 0.00 0.00 0.00 35 1016.1
20260830190303 35 29 4.8 16.1 0.00 0.00 0.00 35 1016.1
20260830190203 35 29 4.8 16.1 0.00 0.00 0.00 35 1016.1
20260830190103 35 27 6.4 16.1 0.00 0.00 0.00 35 1016.1
20260830190003 35 26 6.4 16.1 0.00 0.00 0.00 35 1016.1
20260830185903 35 30 6.4 16.1 0.00 0.00 0.00 35 1016.2
20260830185824 35 31 6.4 16.1 0.00 0.00 0.00 35 1016.1
20260830185703 35 29 6.4 16.1 0.00 0.00 0.00 35 1016.2
20260830185603 35 33 6.4 16.1 0.00 0.00 0.00 35 1016.1
20260830185503 35 28 6.4 16.1 0.00 0.00 0.00 35 1016.1
20260830185403 35 31 8.0 16.1 0.00 0.00 0.00 35 1016.1
20260830185306 35 32 6.4 16.1 0.00 0.00 0.00 35 1016.1
20260830185224 35 28 6.4 16.1 0.00 0.00 0.00 35 1016.2
20260830185124 35 20 6.4 16.1 0.00 0.00 0.00 35 1016.2
20260830185003 35 1 6.4 16.1 0.00 0.00 0.00 35 1016.1
20260830184903 35 338 6.4 16.1 0.00 0.00 0.00 34 1016.2
20260830184805 35 327 6.4 16.1 0.00 0.00 0.00 34 1016.2
20260830184704 35 329 4.8 16.1 0.00 0.00 0.00 35 1016.2
20260830184624 35 325 6.4 17.7 0.00 0.00 0.00 34 1016.1
20260830184503 35 323 4.8 17.7 0.00 0.00 0.00 34 1016.1
20260830184403 35 330 6.4 17.7 0.00 0.00 0.00 34 1016.2
20260830184303 34 346 6.4 17.7 0.00 0.00 0.00 34 1016.2
20260830184203 34 356 6.4 17.7 0.00 0.00 0.00 34 1016.2
20260830184124 34 6 6.4 17.7 0.00 0.00 0.00 34 1016.3
20260830184024 34 13 6.4 17.7 0.00 0.00 0.00 34 1016.3
20260830183924 34 20 6.4 17.7 0.00 0.00 0.00 34 1016.3
20260830183803 34 24 6.4 17.7 0.00 0.00 0.00 34 1016.3
20260830183703 34 16 6.4 17.7 0.00 0.00 0.00 34 1016.3
20260830183624 34 11 6.4 16.1 0.00 0.00 0.00 34 1016.3
20260830183503 34 13 6.4 14.5 0.00 0.00 0.00 34 1016.3
20260830183403 34 10 6.4 14.5 0.00 0.00 0.00 34 1016.3
20260830183303 34 13 6.4 14.5 0.00 0.00 0.00 34 1016.3
20260830183203 34 16 8.0 17.7 0.00 0.00 0.00 34 1016.3
20260830183103 34 15 8.0 17.7 0.00 0.00 0.00 34 1016.4
20260830183003 34 20 8.0 17.7 0.00 0.00 0.00 34 1016.3
20260830182903 33 28 8.0 17.7 0.00 0.00 0.00 34 1016.4
20260830182803 33 34 9.7 17.7 0.00 0.00 0.00 34 1016.4
20260830182724 33 37 9.7 17.7 0.00 0.00 0.00 34 1016.4
20260830182603 33 44 9.7 17.7 0.00 0.00 0.00 34 1016.5
20260830182503 33 47 8.0 17.7 0.00 0.00 0.00 34 1016.4
20260830182403 33 47 9.7 17.7 0.00 0.00 0.00 34 1016.5
20260830182306 33 49 8.0 17.7 0.00 0.00 0.00 35 1016.5
20260830182203 33 53 8.0 17.7 0.00 0.00 0.00 34 1016.4
20260830182124 33 53 8.0 17.7 0.00 0.00 0.00 34 1016.4
20260830182003 33 51 8.0 17.7 0.00 0.00 0.00 34 1016.5
20260830181903 33 48 8.0 17.7 0.00 0.00 0.00 34 1016.5
20260830181803 33 48 8.0 16.1 0.00 0.00 0.00 34 1016.5
20260830181724 33 48 8.0 16.1 0.00 0.00 0.00 34 1016.5
20260830181603 33 43 8.0 16.1 0.00 0.00 0.00 34 1016.6
20260830181503 33 44 8.0 16.1 0.00 0.00 0.00 34 1016.6
20260830181403 33 47 8.0 14.5 0.00 0.00 0.00 34 1016.6
20260830181303 33 45 8.0 14.5 0.00 0.00 0.00 34 1016.7
20260830181224 33 44 8.0 14.5 0.00 0.00 0.00 33 1016.7
20260830181103 33 43 8.0 14.5 0.00 0.00 0.00 33 1016.7
20260830181024 33 43 6.4 14.5 0.00 0.00 0.00 33 1016.8
20260830180903 33 33 6.4 14.5 0.00 0.00 0.00 33 1016.8
20260830180803 33 22 6.4 14.5 0.00 0.00 0.00 33 1016.9
20260830180703 33 19 6.4 14.5 0.00 0.00 0.00 33 1016.8
20260830180603 33 24 6.4 14.5 0.00 0.00 0.00 33 1016.8
20260830180503 33 21 6.4 17.7 0.00 0.00 0.00 32 1016.8
20260830180403 33 22 6.4 17.7 0.00 0.00 0.00 32 1016.8
20260830180303 33 24 8.0 17.7 0.00 0.00 0.00 32 1016.8
20260830180224 33 26 8.0 17.7 0.00 0.00 0.00 32 1016.9
20260830180003 33 31 8.0 19.3 0.00 0.00 0.00 32 1016.9
20260830175903 33 35 8.0 19.3 0.00 0.00 0.00 32 1016.9
20260830175803 33 38 8.0 19.3 0.00 0.00 0.00 32 1016.9
20260830175703 33 46 8.0 19.3 0.00 0.00 0.00 32 1017.0
20260830175603 33 47 8.0 19.3 0.00 0.00 0.00 32 1017.0
20260830175503 33 43 8.0 19.3 0.00 0.00 0.00 32 1017.1
20260830175403 33 45 8.0 19.3 0.00 0.00 0.00 32 1017.1
20260830175305 33 44 8.0 19.3 0.00 0.00 0.00 32 1017.2
20260830175203 33 39 8.0 19.3 0.00 0.00 0.00 32 1017.2
20260830175103 33 39 8.0 16.1 0.00 0.00 0.00 32 1017.2
20260830175003 33 39 8.0 16.1 0.00 0.00 0.00 31 1017.2
20260830174903 33 41 8.0 16.1 0.00 0.00 0.00 31 1017.2
20260830174803 33 45 8.0 17.7 0.00 0.00 0.00 31 1017.2
20260830174703 33 43 8.0 17.7 0.00 0.00 0.00 31 1017.2
20260830174624 33 44 8.0 17.7 0.00 0.00 0.00 31 1017.3
20260830174524 33 47 8.0 17.7 0.00 0.00 0.00 31 1017.3
20260830174403 33 49 8.0 17.7 0.00 0.00 0.00 30 1017.3
20260830174324 33 47 9.7 19.3 0.00 0.00 0.00 30 1017.3
20260830174224 33 48 9.7 19.3 0.00 0.00 0.00 30 1017.3
20260830174103 33 45 9.7 19.3 0.00 0.00 0.00 31 1017.3
20260830174003 33 43 9.7 19.3 0.00 0.00 0.00 31 1017.3
20260830173903 32 43 9.7 19.3 0.00 0.00 0.00 31 1017.4
20260830173803 32 40 9.7 19.3 0.00 0.00 0.00 31 1017.4
20260830173703 33 35 8.0 19.3 0.00 0.00 0.00 31 1017.4
20260830173603 33 34 8.0 19.3 0.00 0.00 0.00 31 1017.4
20260830173524 33 38 9.7 19.3 0.00 0.00 0.00 31 1017.4
20260830173403 33 37 9.7 20.9 0.00 0.00 0.00 30 1017.5
20260830173303 33 36 9.7 20.9 0.00 0.00 0.00 30 1017.6
20260830173203 33 38 8.0 20.9 0.00 0.00 0.00 30 1017.6
20260830173103 33 34 8.0 20.9 0.00 0.00 0.00 30 1017.6
20260830173003 33 25 8.0 20.9 0.00 0.00 0.00 29 1017.7
20260830172903 33 19 8.0 20.9 0.00 0.00 0.00 29 1017.6
20260830172803 33 24 8.0 20.9 0.00 0.00 0.00 29 1017.6
20260830172703 33 29 8.0 20.9 0.00 0.00 0.00 29 1017.6
20260830172603 33 23 8.0 20.9 0.00 0.00 0.00 29 1017.6
20260830172503 33 4 6.4 20.9 0.00 0.00 0.00 28 1017.7
20260830172403 33 347 6.4 16.1 0.00 0.00 0.00 28 1017.7
20260830172306 33 329 4.8 17.7 0.00 0.00 0.00 28 1017.7
20260830172203 33 312 4.8 17.7 0.00 0.00 0.00 28 1017.6
20260830172124 33 311 4.8 17.7 0.00 0.00 0.00 28 1017.6
20260830172024 33 329 4.8 17.7 0.00 0.00 0.00 28 1017.7
20260830171903 33 326 4.8 17.7 0.00 0.00 0.00 27 1017.7
20260830171803 33 319 4.8 17.7 0.00 0.00 0.00 27 1017.7
20260830171703 33 314 6.4 17.7 0.00 0.00 0.00 27 1017.7
20260830171603 33 314 6.4 17.7 0.00 0.00 0.00 27 1017.8
20260830171503 33 313 6.4 17.7 0.00 0.00 0.00 26 1017.8
20260830171426 33 322 6.4 17.7 0.00 0.00 0.00 26 1017.8
20260830171303 32 335 8.0 17.7 0.00 0.00 0.00 26 1017.9
20260830171203 32 352 8.0 19.3 0.00 0.00 0.00 26 1017.9
20260830171103 32 1 8.0 19.3 0.00 0.00 0.00 26 1017.8
20260830171003 32 4 9.7 19.3 0.00 0.00 0.00 26 1017.8
20260830170903 32 12 9.7 19.3 0.00 0.00 0.00 26 1017.9
20260830170803 32 20 9.7 19.3 0.00 0.00 0.00 26 1017.9
20260830170703 32 32 9.7 19.3 0.00 0.00 0.00 25 1017.9
20260830170603 32 39 9.7 19.3 0.00 0.00 0.00 25 1017.9
20260830170524 32 42 9.7 19.3 0.00 0.00 0.00 25 1017.9
20260830170403 32 37 9.7 19.3 0.00 0.00 0.00 24 1017.9
20260830170303 32 39 8.0 19.3 0.00 0.00 0.00 23 1017.9
20260830170203 32 39 8.0 17.7 0.00 0.00 0.00 23 1017.8
20260830170003 32 40 6.4 17.7 0.00 0.00 0.00 22 1017.9
20260830165903 32 42 4.8 12.9 0.00 0.00 0.00 22 1017.9
20260830165803 32 29 6.4 14.5 0.00 0.00 0.00 22 1017.9
20260830165703 32 20 6.4 14.5 0.00 0.00 0.00 22 1017.9
20260830165624 32 14 6.4 14.5 0.00 0.00 0.00 21 1017.9
20260830165503 32 13 6.4 17.7 0.00 0.00 0.00 22 1017.9
20260830165403 32 22 6.4 17.7 0.00 0.00 0.00 21 1018.0
20260830165324 32 28 6.4 17.7 0.00 0.00 0.00 21 1018.0
20260830165203 32 23 6.4 17.7 0.00 0.00 0.00 21 1018.0
20260830165103 32 21 6.4 17.7 0.00 0.00 0.00 20 1018.0
20260830165024 32 23 6.4 17.7 0.00 0.00 0.00 19 1018.0
20260830164903 32 20 6.4 17.7 0.00 0.00 0.00 19 1018.0
20260830164824 32 24 6.4 17.7 0.00 0.00 0.00 19 1018.0
20260830164703 32 32 6.4 17.7 0.00 0.00 0.00 18 1018.1
20260830164624 32 36 6.4 17.7 0.00 0.00 0.00 18 1018.0
20260830164503 32 34 4.8 14.5 0.00 0.00 0.00 17 1018.1
20260830164403 32 31 4.8 12.9 0.00 0.00 0.00 16 1018.0
20260830164303 32 34 4.8 16.1 0.00 0.00 0.00 18 1018.1
20260830164224 32 43 6.4 16.1 0.00 0.00 0.00 16 1018.0
20260830164103 32 47 6.4 16.1 0.00 0.00 0.00 14 1018.0
20260830164003 32 47 8.0 17.7 0.00 0.00 0.00 13 1018.0
20260830163903 31 46 8.0 17.7 0.00 0.00 0.00 14 1018.0
20260830163803 31 44 8.0 17.7 0.00 0.00 0.00 13 1018.0
20260830163703 31 44 8.0 17.7 0.00 0.00 0.00 13 1018.1
20260830163603 31 43 8.0 17.7 0.00 0.00 0.00 13 1018.1
20260830163503 31 45 8.0 17.7 0.00 0.00 0.00 11 1018.1
20260830163403 31 47 8.0 17.7 0.00 0.00 0.00 11 1018.1
20260830163303 31 47 8.0 17.7 0.00 0.00 0.00 10 1018.1
20260830163203 31 49 8.0 17.7 0.00 0.00 0.00 11 1018.1
20260830163103 31 46 6.4 17.7 0.00 0.00 0.00 11 1018.1
20260830163003 31 45 6.4 14.5 0.00 0.00 0.00 10 1018.2
20260830162903 31 43 6.4 14.5 0.00 0.00 0.00 10 1018.1
20260830162803 31 40 4.8 14.5 0.00 0.00 0.00 9 1018.2
20260830162703 31 32 6.4 14.5 0.00 0.00 0.00 8 1018.2
20260830162603 31 11 6.4 12.9 0.00 0.00 0.00 7 1018.2
20260830162503 31 1 6.4 12.9 0.00 0.00 0.00 8 1018.2
20260830162424 31 357 6.4 12.9 0.00 0.00 0.00 7 1018.2
20260830162306 31 345 6.4 12.9 0.00 0.00 0.00 8 1018.2
20260830162203 31 336 4.8 12.9 0.00 0.00 0.00 8 1018.2
20260830162124 31 346 6.4 12.9 0.00 0.00 0.00 8 1018.2
20260830162003 31 359 6.4 16.1 0.00 0.00 0.00 10 1018.2
20260830161903 31 5 8.0 16.1 0.00 0.00 0.00 10 1018.2
20260830161803 31 7 8.0 16.1 0.00 0.00 0.00 10 1018.2
20260830161703 31 10 8.0 16.1 0.00 0.00 0.00 11 1018.2
20260830161603 31 20 8.0 16.1 0.00 0.00 0.00 9 1018.2
20260830161503 31 17 8.0 16.1 0.00 0.00 0.00 10 1018.2
20260830161403 31 17 8.0 16.1 0.00 0.00 0.00 9 1018.2
20260830161303 31 17 8.0 16.1 0.00 0.00 0.00 8 1018.2
20260830161203 31 8 8.0 16.1 0.00 0.00 0.00 10 1018.2
20260830161103 31 6 6.4 16.1 0.00 0.00 0.00 7 1018.2
20260830161004 31 8 6.4 14.5 0.00 0.00 0.00 7 1018.2
20260830160903 31 6 6.4 14.5 0.00 0.00 0.00 4 1018.2
20260830160803 31 9 6.4 14.5 0.00 0.00 0.00 5 1018.2
20260830160703 31 13 6.4 14.5 0.00 0.00 0.00 5 1018.2
20260830160603 31 20 6.4 14.5 0.00 0.00 0.00 4 1018.2
20260830160503 31 26 8.0 16.1 0.00 0.00 0.00 4 1018.3
20260830160424 31 30 8.0 16.1 0.00 0.00 0.00 4 1018.2
20260830160303 31 35 8.0 16.1 0.00 0.00 0.00 4 1018.2
20260830160203 31 40 8.0 16.1 0.00 0.00 0.00 3 1018.2
20260830160103 31 39 8.0 17.7 0.00 0.00 0.00 3 1018.2
20260830160005 30 39 8.0 17.7 0.00 0.00 0.00 1 1018.2
20260830155903 30 44 8.0 17.7 0.00 0.00 0.00 1 1018.2
20260830155803 30 44 8.0 17.7 0.00 0.00 0.00 1 1018.2
20260830155703 30 42 8.0 17.7 0.00 0.00 0.00 1 1018.3
20260830155603 30 40 8.0 17.7 0.00 0.00 0.00 1 1018.2
20260830155503 30 41 8.0 17.7 0.00 0.00 0.00 1 1018.2
20260830155403 30 38 8.0 17.7 0.00 0.00 0.00 1 1018.2
20260830155306 30 39 6.4 17.7 0.00 0.00 0.00 1 1018.2
20260830155203 30 38 6.4 17.7 0.00 0.00 0.00 1 1018.2
20260830155103 30 37 6.4 17.7 0.00 0.00 0.00 1 1018.2
20260830155003 30 39 6.4 19.3 0.00 0.00 0.00 1 1018.3
20260830154904 30 39 6.4 19.3 0.00 0.00 0.00 1 1018.2
20260830154824 30 40 8.0 19.3 0.00 0.00 0.00 1 1018.2
20260830154703 30 42 8.0 19.3 0.00 0.00 0.00 1 1018.2
20260830154603 30 44 8.0 19.3 0.00 0.00 0.00 1 1018.1
20260830154503 30 43 8.0 19.3 0.00 0.00 0.00 1 1018.1
20260830154403 30 43 8.0 19.3 0.00 0.00 0.00 1 1018.2
20260830154303 30 39 9.7 19.3 0.00 0.00 0.00 1 1018.1
20260830154224 30 38 9.7 19.3 0.00 0.00 0.00 1 1018.1
20260830154103 30 41 9.7 19.3 0.00 0.00 0.00 1 1018.1
20260830154024 30 36 8.0 19.3 0.00 0.00 0.00 1 1018.1
20260830153903 30 28 8.0 17.7 0.00 0.00 0.00 1 1018.1
20260830153803 30 29 9.7 17.7 0.00 0.00 0.00 1 1018.1
20260830153724 30 31 8.0 17.7 0.00 0.00 0.00 1 1018.0
20260830153626 30 29 9.7 17.7 0.00 0.00 0.00 1 1018.0
20260830153505 30 31 9.7 17.7 0.00 0.00 0.00 1 1018.0
20260830153403 30 32 9.7 19.3 0.00 0.00 0.00 1 1018.0
20260830153303 30 34 9.7 19.3 0.00 0.00 0.00 1 1018.0
20260830153203 30 37 9.7 19.3 0.00 0.00 0.00 1 1017.9
20260830153124 30 35 9.7 19.3 0.00 0.00 0.00 1 1018.0
20260830153003 30 39 9.7 19.3 0.00 0.00 0.00 1 1017.9
20260830152903 30 41 11.3 19.3 0.00 0.00 0.00 1 1017.9
20260830152803 30 42 11.3 19.3 0.00 0.00 0.00 1 1017.9
20260830152703 30 41 11.3 19.3 0.00 0.00 0.00 1 1017.9
20260830152603 29 39 9.7 19.3 0.00 0.00 0.00 1 1017.9
20260830152503 30 37 9.7 19.3 0.00 0.00 0.00 1 1017.9
20260830152403 30 36 8.0 16.1 0.00 0.00 0.00 1 1017.9
20260830152305 30 36 8.0 16.1 0.00 0.00 0.00 1 1017.9
20260830152203 30 37 8.0 16.1 0.00 0.00 0.00 1 1017.9
20260830152103 30 39 8.0 16.1 0.00 0.00 0.00 1 1017.9
20260830152024 30 38 8.0 16.1 0.00 0.00 0.00 1 1017.9
20260830151924 30 38 8.0 16.1 0.00 0.00 0.00 1 1017.9
20260830151824 30 40 8.0 22.5 0.00 0.00 0.00 1 1017.9
20260830151703 30 42 8.0 22.5 0.00 0.00 0.00 1 1017.8
20260830151603 30 45 8.0 22.5 0.00 0.00 0.00 1 1017.8
20260830151503 30 48 8.0 22.5 0.00 0.00 0.00 1 1017.9
20260830151403 29 47 9.7 22.5 0.00 0.00 0.00 1 1017.8
20260830151303 29 46 9.7 22.5 0.00 0.00 0.00 1 1017.8
20260830151203 29 43 9.7 22.5 0.00 0.00 0.00 1 1017.8
20260830151103 29 44 11.3 22.5 0.00 0.00 0.00 1 1017.8
20260830151003 29 44 11.3 22.5 0.00 0.00 0.00 1 1017.8
20260830150903 29 45 11.3 22.5 0.00 0.00 0.00 1 1017.8
20260830150803 29 43 11.3 20.9 0.00 0.00 0.00 1 1017.8
20260830150703 28 42 11.3 20.9 0.00 0.00 0.00 1 1017.8
20260830150603 28 41 11.3 20.9 0.00 0.00 0.00 1 1017.8
20260830150503 28 40 11.3 20.9 0.00 0.00 0.00 1 1017.8
20260830150403 28 40 11.3 20.9 0.00 0.00 0.00 1 1017.8
20260830150303 28 40 11.3 20.9 0.00 0.00 0.00 1 1017.8
20260830150203 28 41 11.3 20.9 0.00 0.00 0.00 1 1017.8
20260830150003 28 40 11.3 20.9 0.00 0.00 0.00 1 1017.8
20260830145903 28 39 11.3 20.9 0.00 0.00 0.00 1 1017.8
20260830145803 28 37 11.3 20.9 0.00 0.00 0.00 1 1017.8
20260830145703 28 36 11.3 20.9 0.00 0.00 0.00 1 1017.7
20260830145603 28 36 11.3 20.9 0.00 0.00 0.00 1 1017.7
20260830145503 28 37 11.3 20.9 0.00 0.00 0.00 1 1017.7
20260830145424 28 37 11.3 20.9 0.00 0.00 0.00 1 1017.8
20260830145306 28 39 11.3 20.9 0.00 0.00 0.00 1 1017.8
20260830145203 28 39 11.3 20.9 0.00 0.00 0.00 1 1017.8
20260830145124 28 40 11.3 20.9 0.00 0.00 0.00 1 1017.8
20260830145024 28 41 11.3 20.9 0.00 0.00 0.00 1 1017.8
20260830144924 28 42 11.3 20.9 0.00 0.00 0.00 1 1017.8
20260830144803 28 44 11.3 20.9 0.00 0.00 0.00 1 1017.8
20260830144703 28 46 9.7 20.9 0.00 0.00 0.00 1 1017.9
20260830144624 28 47 9.7 19.3 0.00 0.00 0.00 1 1017.9
20260830144524 28 47 11.3 19.3 0.00 0.00 0.00 1 1017.8
20260830144403 28 48 11.3 19.3 0.00 0.00 0.00 1 1017.9
20260830144303 28 48 11.3 19.3 0.00 0.00 0.00 1 1017.9
20260830144203 28 50 11.3 19.3 0.00 0.00 0.00 1 1017.9
20260830144103 28 51 11.3 19.3 0.00 0.00 0.00 1 1017.9
20260830144024 28 52 9.7 19.3 0.00 0.00 0.00 1 1017.9
20260830143903 28 49 9.7 19.3 0.00 0.00 0.00 1 1017.8
20260830143803 27 49 9.7 19.3 0.00 0.00 0.00 1 1017.9
20260830143703 27 49 9.7 17.7 0.00 0.00 0.00 1 1017.9
20260830143603 27 48 11.3 17.7 0.00 0.00 0.00 1 1017.8
20260830143503 27 48 9.7 17.7 0.00 0.00 0.00 1 1017.9
20260830143403 27 45 11.3 17.7 0.00 0.00 0.00 1 1017.9
20260830143303 27 44 11.3 17.7 0.00 0.00 0.00 1 1017.9
20260830143224 27 43 11.3 17.7 0.00 0.00 0.00 1 1017.9
20260830143103 27 40 9.7 17.7 0.00 0.00 0.00 1 1017.8
20260830143003 27 40 9.7 17.7 0.00 0.00 0.00 1 1017.8
20260830142903 27 43 9.7 17.7 0.00 0.00 0.00 1 1017.8
20260830142824 27 44 9.7 17.7 0.00 0.00 0.00 1 1017.8
20260830142703 28 45 9.7 17.7 0.00 0.00 0.00 1 1017.9
20260830142624 28 47 9.7 17.7 0.00 0.00 0.00 1 1017.8
20260830142503 28 45 9.7 17.7 0.00 0.00 0.00 1 1017.8
20260830142403 28 49 8.0 17.7 0.00 0.00 0.00 1 1017.8
20260830142305 28 50 8.0 17.7 0.00 0.00 0.00 1 1017.8
20260830142224 27 51 6.4 14.5 0.00 0.00 0.00 1 1017.8
20260830142103 27 51 6.4 12.9 0.00 0.00 0.00 1 1017.8
20260830142003 27 50 6.4 12.9 0.00 0.00 0.00 1 1017.8
20260830141903 27 51 6.4 11.3 0.00 0.00 0.00 1 1017.8
20260830141803 27 44 6.4 12.9 0.00 0.00 0.00 1 1017.8
20260830141724 27 43 6.4 12.9 0.00 0.00 0.00 1 1017.8
20260830141603 27 45 6.4 12.9 0.00 0.00 0.00 1 1017.8
20260830141503 27 44 6.4 12.9 0.00 0.00 0.00 1 1017.8
20260830141424 27 45 8.0 14.5 0.00 0.00 0.00 1 1017.8
20260830141303 27 43 8.0 17.7 0.00 0.00 0.00 1 1017.8
20260830141203 27 44 8.0 17.7 0.00 0.00 0.00 1 1017.9
20260830141103 27 46 8.0 17.7 0.00 0.00 0.00 1 1017.9
20260830141003 27 46 8.0 17.7 0.00 0.00 0.00 1 1017.8
20260830140903 27 43 8.0 17.7 0.00 0.00 0.00 1 1017.8
20260830140803 27 47 8.0 17.7 0.00 0.00 0.00 1 1017.8
20260830140703 27 47 8.0 17.7 0.00 0.00 0.00 1 1017.9
20260830140603 27 46 8.0 17.7 0.00 0.00 0.00 1 1017.9
20260830140503 27 47 8.0 17.7 0.00 0.00 0.00 1 1017.9
20260830140424 27 46 6.4 17.7 0.00 0.00 0.00 1 1017.9
20260830140303 27 47 6.4 14.5 0.00 0.00 0.00 1 1017.9
20260830140203 27 47 6.4 14.5 0.00 0.00 0.00 1 1017.9
20260830140024 27 44 6.4 16.1 0.00 0.00 0.00 1 1017.9
20260830135903 27 44 6.4 16.1 0.00 0.00 0.00 1 1017.9
20260830135824 27 45 6.4 16.1 0.00 0.00 0.00 1 1017.9
20260830135726 27 45 6.4 16.1 0.00 0.00 0.00 1 1017.9
20260830135603 27 44 6.4 16.1 0.00 0.00 0.00 1 1017.9
20260830135503 27 43 6.4 16.1 0.00 0.00 0.00 1 1017.9
20260830135403 27 43 6.4 16.1 0.00 0.00 0.00 1 1017.8
20260830135324 27 44 6.4 16.1 0.00 0.00 0.00 1 1017.8
20260830135203 27 45 6.4 16.1 0.00 0.00 0.00 1 1017.8
20260830135103 27 45 6.4 12.9 0.00 0.00 0.00 1 1017.8
20260830135024 27 46 6.4 12.9 0.00 0.00 0.00 1 1017.8
20260830134903 26 46 6.4 14.5 0.00 0.00 0.00 1 1017.8
20260830134803 26 47 6.4 16.1 0.00 0.00 0.00 1 1017.8
20260830134703 26 47 6.4 16.1 0.00 0.00 0.00 1 1017.7
20260830134603 26 46 6.4 16.1 0.00 0.00 0.00 1 1017.7
20260830134503 26 45 6.4 16.1 0.00 0.00 0.00 1 1017.7
20260830134403 26 45 6.4 16.1 0.00 0.00 0.00 1 1017.7
20260830134303 26 43 6.4 16.1 0.00 0.00 0.00 1 1017.7
20260830134203 26 41 6.4 16.1 0.00 0.00 0.00 1 1017.7
20260830134103 26 39 6.4 16.1 0.00 0.00 0.00 1 1017.7
20260830134024 26 39 6.4 16.1 0.00 0.00 0.00 1 1017.7
20260830133903 26 41 6.4 16.1 0.00 0.00 0.00 1 1017.7
20260830133803 26 42 6.4 12.9 0.00 0.00 0.00 1 1017.7
20260830133703 26 44 6.4 12.9 0.00 0.00 0.00 1 1017.6
20260830133603 26 45 6.4 12.9 0.00 0.00 0.00 1 1017.5
20260830133503 26 46 6.4 12.9 0.00 0.00 0.00 1 1017.5
20260830133403 26 46 6.4 12.9 0.00 0.00 0.00 1 1017.5
20260830133303 26 46 6.4 12.9 0.00 0.00 0.00 1 1017.5
20260830133203 26 46 6.4 12.9 0.00 0.00 0.00 1 1017.5
20260830133103 26 47 6.4 12.9 0.00 0.00 0.00 1 1017.5
20260830133003 26 50 6.4 12.9 0.00 0.00 0.00 1 1017.5
20260830132903 26 50 6.4 12.9 0.00 0.00 0.00 1 1017.5
20260830132803 25 49 6.4 11.3 0.00 0.00 0.00 1 1017.5
20260830132703 25 48 6.4 11.3 0.00 0.00 0.00 1 1017.5
20260830132624 25 49 6.4 11.3 0.00 0.00 0.00 1 1017.5
20260830132503 25 48 6.4 11.3 0.00 0.00 0.00 1 1017.5
20260830132403 25 50 6.4 12.9 0.00 0.00 0.00 1 1017.5
20260830132305 25 49 6.4 12.9 0.00 0.00 0.00 1 1017.5
20260830132203 25 51 6.4 12.9 0.00 0.00 0.00 1 1017.5
20260830132103 25 50 6.4 12.9 0.00 0.00 0.00 1 1017.5
20260830132024 25 49 6.4 12.9 0.00 0.00 0.00 1 1017.4
20260830131903 25 47 6.4 12.9 0.00 0.00 0.00 1 1017.5
20260830131803 25 46 6.4 12.9 0.00 0.00 0.00 1 1017.4
20260830131703 25 46 8.0 12.9 0.00 0.00 0.00 1 1017.4
20260830131624 25 46 6.4 12.9 0.00 0.00 0.00 1 1017.4
20260830131503 25 43 6.4 12.9 0.00 0.00 0.00 1 1017.4
20260830131403 25 41 6.4 12.9 0.00 0.00 0.00 1 1017.4
20260830131303 25 41 6.4 12.9 0.00 0.00 0.00 1 1017.4
20260830131203 25 41 6.4 12.9 0.00 0.00 0.00 1 1017.4
20260830131103 25 41 6.4 12.9 0.00 0.00 0.00 1 1017.4
20260830131003 25 42 6.4 12.9 0.00 0.00 0.00 1 1017.4
20260830130924 25 42 6.4 12.9 0.00 0.00 0.00 1 1017.3
20260830130824 25 42 6.4 11.3 0.00 0.00 0.00 1 1017.3
20260830130703 25 41 4.8 11.3 0.00 0.00 0.00 1 1017.3
20260830130603 25 41 4.8 11.3 0.00 0.00 0.00 1 1017.3
20260830130503 25 42 4.8 11.3 0.00 0.00 0.00 1 1017.3
20260830130403 25 42 6.4 12.9 0.00 0.00 0.00 1 1017.3
20260830130324 25 42 6.4 12.9 0.00 0.00 0.00 1 1017.3
20260830130203 24 42 6.4 12.9 0.00 0.00 0.00 1 1017.3
20260830130124 24 42 6.4 12.9 0.00 0.00 0.00 1 1017.3
20260830130003 24 43 6.4 12.9 0.00 0.00 0.00 1 1017.2
20260830125903 24 44 6.4 12.9 0.00 0.00 0.00 1 1017.3
20260830125825 24 45 6.4 12.9 0.00 0.00 0.00 1 1017.3
20260830125704 24 46 6.4 12.9 0.00 0.00 0.00 1 1017.2
20260830125625 24 46 6.4 12.9 0.00 0.00 0.00 1 1017.2
20260830125504 24 48 6.4 12.9 0.00 0.00 0.00 1 1017.2
20260830125404 24 48 6.4 12.9 0.00 0.00 0.00 1 1017.2
20260830125325 24 48 6.4 12.9 0.00 0.00 0.00 1 1017.2
20260830125204 24 49 6.4 12.9 0.00 0.00 0.00 1 1017.2
20260830125104 24 50 4.8 12.9 0.00 0.00 0.00 1 1017.2
20260830125004 24 51 4.8 11.3 0.00 0.00 0.00 1 1017.2
20260830124904 24 49 4.8 11.3 0.00 0.00 0.00 1 1017.2
20260830124825 23 48 4.8 11.3 0.00 0.00 0.00 1 1017.2
20260830124704 23 47 4.8 11.3 0.00 0.00 0.00 1 1017.2
20260830124604 23 47 4.8 11.3 0.00 0.00 0.00 1 1017.2
20260830124504 23 47 4.8 9.7 0.00 0.00 0.00 1 1017.2
20260830124404 23 47 4.8 9.7 0.00 0.00 0.00 1 1017.2
20260830124304 23 46 4.8 9.7 0.00 0.00 0.00 1 1017.2
20260830124204 23 46 4.8 9.7 0.00 0.00 0.00 1 1017.1
20260830124104 23 45 4.8 9.7 0.00 0.00 0.00 1 1017.1
20260830124004 23 45 3.2 9.7 0.00 0.00 0.00 1 1017.1
20260830123904 23 44 3.2 9.7 0.00 0.00 0.00 1 1017.1
20260830123825 23 43 3.2 9.7 0.00 0.00 0.00 1 1017.1
20260830123704 23 43 3.2 8.0 0.00 0.00 0.00 1 1017.1
20260830123604 23 43 3.2 8.0 0.00 0.00 0.00 1 1017.0
20260830123504 23 43 3.2 8.0 0.00 0.00 0.00 1 1017.1
20260830123404 23 42 3.2 8.0 0.00 0.00 0.00 1 1017.0
20260830123304 23 42 3.2 8.0 0.00 0.00 0.00 1 1017.0
20260830123204 23 42 3.2 8.0 0.00 0.00 0.00 1 1017.0
20260830123125 23 42 3.2 8.0 0.00 0.00 0.00 1 1017.0
20260830123004 23 42 3.2 8.0 0.00 0.00 0.00 1 1017.0
20260830122925 23 42 3.2 8.0 0.00 0.00 0.00 1 1017.0
20260830122804 23 43 3.2 8.0 0.00 0.00 0.00 1 1017.0
20260830122704 23 42 3.2 12.9 0.00 0.00 0.00 1 1017.0
20260830122604 23 45 4.8 12.9 0.00 0.00 0.00 1 1017.0
20260830122504 23 47 4.8 12.9 0.00 0.00 0.00 1 1017.0
20260830122425 23 49 4.8 12.9 0.00 0.00 0.00 1 1017.0
20260830122306 23 52 4.8 12.9 0.00 0.00 0.00 1 1017.0
20260830122204 23 53 4.8 12.9 0.00 0.00 0.00 1 1017.0
20260830122125 23 54 4.8 12.9 0.00 0.00 0.00 1 1017.0
20260830122004 23 55 4.8 12.9 0.00 0.00 0.00 1 1017.0
20260830121904 23 57 6.4 12.9 0.00 0.00 0.00 1 1017.0
20260830121825 23 58 6.4 12.9 0.00 0.00 0.00 1 1017.0
20260830121704 23 61 6.4 11.3 0.00 0.00 0.00 1 1017.0
20260830121625 23 61 4.8 11.3 0.00 0.00 0.00 1 1017.0
20260830121525 23 61 4.8 11.3 0.00 0.00 0.00 1 1017.0
20260830121404 23 59 4.8 11.3 0.00 0.00 0.00 1 1016.9
20260830121304 23 60 4.8 11.3 0.00 0.00 0.00 1 1016.9
20260830121204 23 60 4.8 11.3 0.00 0.00 0.00 1 1016.9
20260830121104 23 61 4.8 11.3 0.00 0.00 0.00 1 1016.9
20260830121004 23 61 4.8 11.3 0.00 0.00 0.00 1 1016.9
20260830120904 23 61 3.2 11.3 0.00 0.00 0.00 1 1016.9
20260830120825 23 61 3.2 9.7 0.00 0.00 0.00 1 1016.9
20260830120704 23 60 3.2 9.7 0.00 0.00 0.00 1 1016.8
20260830120604 23 60 3.2 9.7 0.00 0.00 0.00 1 1016.9
20260830120525 23 59 3.2 9.7 0.00 0.00 0.00 1 1016.9
20260830120404 23 59 3.2 9.7 0.00 0.00 0.00 1 1016.9
20260830120325 23 59 3.2 8.0 0.00 0.00 0.00 1 1016.9
20260830120204 23 58 3.2 8.0 0.00 0.00 0.00 1 1016.9
20260830120104 23 58 3.2 8.0 0.00 0.00 0.00 1 1016.8
20260830120004 23 57 3.2 8.0 0.00 0.00 0.00 1 1016.8
20260830115904 23 56 3.2 8.0 0.00 0.00 0.00 1 1016.8
20260830115804 23 55 3.2 9.7 0.00 0.00 0.00 1 1016.8
20260830115704 23 54 3.2 9.7 0.00 0.00 0.00 1 1016.8
20260830115604 23 54 3.2 9.7 0.00 0.00 0.00 1 1016.8
20260830115504 23 53 4.8 11.3 0.00 0.00 0.00 1 1016.8
20260830115404 23 54 4.8 11.3 0.00 0.00 0.00 1 1016.8
20260830115306 23 54 4.8 11.3 0.00 0.00 0.00 1 1016.8
20260830115204 23 54 3.2 11.3 0.00 0.00 0.00 1 1016.8
20260830115104 23 56 4.8 11.3 0.00 0.00 0.00 1 1016.8
20260830115004 23 57 4.8 11.3 0.00 0.00 0.00 1 1016.8
20260830114904 23 56 4.8 11.3 0.00 0.00 0.00 1 1016.8
20260830114804 23 57 4.8 11.3 0.00 0.00 0.00 1 1016.8
20260830114704 23 58 4.8 11.3 0.00 0.00 0.00 1 1016.7
20260830114625 23 58 3.2 11.3 0.00 0.00 0.00 1 1016.8
20260830114525 23 59 3.2 8.0 0.00 0.00 0.00 1 1016.7
20260830114404 23 58 3.2 8.0 0.00 0.00 0.00 1 1016.7
20260830114325 23 57 3.2 8.0 0.00 0.00 0.00 1 1016.7
20260830114204 23 58 3.2 8.0 0.00 0.00 0.00 1 1016.8
20260830114104 23 57 3.2 8.0 0.00 0.00 0.00 1 1016.7
20260830114025 23 57 3.2 8.0 0.00 0.00 0.00 1 1016.7
20260830113904 23 57 3.2 8.0 0.00 0.00 0.00 1 1016.7
20260830113804 23 56 3.2 8.0 0.00 0.00 0.00 1 1016.7
20260830113704 23 55 3.2 8.0 0.00 0.00 0.00 1 1016.7
20260830113604 23 55 3.2 8.0 0.00 0.00 0.00 1 1016.7
20260830113504 23 55 3.2 8.0 0.00 0.00 0.00 1 1016.7
20260830113404 23 55 3.2 8.0 0.00 0.00 0.00 1 1016.7
20260830113304 23 54 3.2 8.0 0.00 0.00 0.00 1 1016.7
20260830113204 23 53 3.2 9.7 0.00 0.00 0.00 1 1016.7
20260830113104 23 51 3.2 9.7 0.00 0.00 0.00 1 1016.6
20260830113004 23 52 3.2 9.7 0.00 0.00 0.00 1 1016.6
20260830112904 23 51 3.2 9.7 0.00 0.00 0.00 1 1016.6
20260830112825 23 51 3.2 9.7 0.00 0.00 0.00 1 1016.6
20260830112704 23 51 3.2 9.7 0.00 0.00 0.00 1 1016.6
20260830112625 23 52 3.2 9.7 0.00 0.00 0.00 1 1016.5
20260830112504 23 52 3.2 9.7 0.00 0.00 0.00 1 1016.5
20260830112404 23 52 3.2 9.7 0.00 0.00 0.00 1 1016.5
20260830112306 23 53 3.2 9.7 0.00 0.00 0.00 1 1016.5
20260830112204 23 53 3.2 8.0 0.00 0.00 0.00 1 1016.6
20260830112104 23 54 3.2 8.0 0.00 0.00 0.00 1 1016.6
20260830112025 23 54 3.2 8.0 0.00 0.00 0.00 1 1016.5
20260830111904 23 55 3.2 6.4 0.00 0.00 0.00 1 1016.5
20260830111804 23 55 3.2 6.4 0.00 0.00 0.00 1 1016.5
20260830111725 24 55 3.2 8.0 0.00 0.00 0.00 1 1016.5
20260830111604 24 56 3.2 8.0 0.00 0.00 0.00 1 1016.5
20260830111504 24 56 3.2 9.7 0.00 0.00 0.00 1 1016.5
20260830111404 24 56 3.2 9.7 0.00 0.00 0.00 1 1016.5
20260830111304 24 56 4.8 11.3 0.00 0.00 0.00 1 1016.5
20260830111225 24 56 4.8 11.3 0.00 0.00 0.00 1 1016.6
20260830111104 24 56 4.8 11.3 0.00 0.00 0.00 1 1016.6
20260830111004 24 55 4.8 11.3 0.00 0.00 0.00 1 1016.6
20260830110904 24 55 4.8 11.3 0.00 0.00 0.00 1 1016.6
20260830110804 24 55 4.8 11.3 0.00 0.00 0.00 1 1016.5
20260830110704 24 55 4.8 11.3 0.00 0.00 0.00 1 1016.6
20260830110604 24 55 3.2 11.3 0.00 0.00 0.00 1 1016.6
20260830110504 24 55 3.2 11.3 0.00 0.00 0.00 1 1016.6
20260830110425 24 54 3.2 11.3 0.00 0.00 0.00 1 1016.5
20260830110304 24 53 3.2 9.7 0.00 0.00 0.00 1 1016.5
20260830110205 24 54 3.2 8.0 0.00 0.00 0.00 1 1016.5
20260830110104 24 54 3.2 8.0 0.00 0.00 0.00 1 1016.5
20260830110005 24 54 3.2 8.0 0.00 0.00 0.00 1 1016.5
20260830105904 24 55 3.2 8.0 0.00 0.00 0.00 1 1016.5
20260830105804 24 55 3.2 8.0 0.00 0.00 0.00 1 1016.5
20260830105704 24 54 3.2 8.0 0.00 0.00 0.00 1 1016.4
20260830105604 24 54 3.2 8.0 0.00 0.00 0.00 1 1016.4
20260830105525 24 55 3.2 8.0 0.00 0.00 0.00 1 1016.4
20260830105425 24 55 3.2 8.0 0.00 0.00 0.00 1 1016.4
20260830105305 24 56 3.2 9.7 0.00 0.00 0.00 1 1016.5
20260830105204 24 56 3.2 9.7 0.00 0.00 0.00 1 1016.5
20260830105104 24 57 3.2 9.7 0.00 0.00 0.00 1 1016.4
20260830105004 24 57 3.2 9.7 0.00 0.00 0.00 1 1016.5
20260830104904 24 58 3.2 9.7 0.00 0.00 0.00 1 1016.5
20260830104804 24 57 3.2 9.7 0.00 0.00 0.00 1 1016.4
20260830104704 24 56 3.2 9.7 0.00 0.00 0.00 1 1016.5
20260830104604 24 56 3.2 9.7 0.00 0.00 0.00 1 1016.5
20260830104504 24 54 3.2 9.7 0.00 0.00 0.00 1 1016.4
20260830104404 24 54 3.2 8.0 0.00 0.00 0.00 1 1016.4
20260830104325 24 54 3.2 8.0 0.00 0.00 0.00 1 1016.5
20260830104204 24 51 3.2 8.0 0.00 0.00 0.00 1 1016.4
20260830104104 24 48 3.2 8.0 0.00 0.00 0.00 1 1016.5
20260830104025 24 44 3.2 9.7 0.00 0.00 0.00 1 1016.4
20260830103904 25 40 3.2 9.7 0.00 0.00 0.00 1 1016.5
20260830103804 25 40 3.2 9.7 0.00 0.00 0.00 1 1016.5
20260830103704 25 39 3.2 9.7 0.00 0.00 0.00 1 1016.4
20260830103625 25 38 3.2 9.7 0.00 0.00 0.00 1 1016.4
20260830103504 25 37 3.2 9.7 0.00 0.00 0.00 1 1016.4
20260830103404 25 35 3.2 9.7 0.00 0.00 0.00 1 1016.4
20260830103304 25 32 3.2 9.7 0.00 0.00 0.00 1 1016.4
20260830103204 25 33 3.2 9.7 0.00 0.00 0.00 1 1016.4
20260830103104 25 35 3.2 9.7 0.00 0.00 0.00 1 1016.4
20260830103004 25 38 3.2 8.0 0.00 0.00 0.00 1 1016.4
20260830102904 25 38 3.2 8.0 0.00 0.00 0.00 1 1016.4
20260830102804 25 39 3.2 8.0 0.00 0.00 0.00 1 1016.3
20260830102704 25 38 3.2 11.3 0.00 0.00 0.00 1 1016.3
20260830102625 25 38 3.2 11.3 0.00 0.00 0.00 1 1016.3
20260830102504 25 39 3.2 11.3 0.00 0.00 0.00 1 1016.3
20260830102404 25 38 3.2 11.3 0.00 0.00 0.00 1 1016.3
20260830102306 25 38 3.2 11.3 0.00 0.00 0.00 1 1016.3
20260830102204 25 37 3.2 11.3 0.00 0.00 0.00 1 1016.4
20260830102125 25 37 3.2 11.3 0.00 0.00 0.00 1 1016.4
20260830102004 25 36 3.2 11.3 0.00 0.00 0.00 1 1016.4
20260830101904 25 36 3.2 11.3 0.00 0.00 0.00 1 1016.4
20260830101804 25 36 3.2 11.3 0.00 0.00 0.00 1 1016.4
20260830101704 25 38 3.2 8.0 0.00 0.00 0.00 1 1016.4
20260830101625 25 38 3.2 8.0 0.00 0.00 0.00 1 1016.4
20260830101504 25 40 3.2 8.0 0.00 0.00 0.00 1 1016.4
20260830101404 25 41 3.2 8.0 0.00 0.00 0.00 1 1016.4
20260830101304 25 41 4.8 8.0 0.00 0.00 0.00 1 1016.4